2016 Cux-Wetter.de -Die Nutzung der Wetterdaten nur mit ausdrcklicher Genehmigung
Wetterdaten: Mittwoch, 16.03.2016
Datum Zeit Temp. A. Feuchte A. Luftdruck Regen Wind Richtung Richtung Sonnenschein Solar Taupunkt Windchill Windben
16.03.2016 00:00 2,2 C 92 % 1031,2 hPa 0,0 l/m 5,7 km/h (2 Bft) N 360 0 min 0 W/m 1,0 C 2,2 C 9,7 km/h (2 Bft)
16.03.2016 00:03 2,2 C 92 % 1031,2 hPa 0,0 l/m 5,5 km/h (2 Bft) N 355 0 min 0 W/m 1,0 C 2,2 C 12,9 km/h (3 Bft)
16.03.2016 00:06 2,2 C 92 % 1031,1 hPa 0,0 l/m 4,8 km/h (1 Bft) N-NO 29 0 min 0 W/m 1,0 C 2,2 C 8,0 km/h (2 Bft)
16.03.2016 00:09 2,1 C 92 % 1031,1 hPa 0,0 l/m 4,7 km/h (1 Bft) NO 38 0 min 0 W/m 0,9 C 2,1 C 8,0 km/h (2 Bft)
16.03.2016 00:12 2,0 C 92 % 1031,2 hPa 0,0 l/m 4,0 km/h (1 Bft) NO 34 0 min 0 W/m 0,8 C 2,0 C 6,4 km/h (2 Bft)
16.03.2016 00:15 2,0 C 92 % 1031,2 hPa 0,0 l/m 4,5 km/h (1 Bft) N 5 0 min 0 W/m 0,8 C 2,0 C 8,0 km/h (2 Bft)
16.03.2016 00:18 1,9 C 92 % 1031,1 hPa 0,0 l/m 4,6 km/h (1 Bft) NO 53 0 min 0 W/m 0,7 C 1,9 C 8,0 km/h (2 Bft)
16.03.2016 00:21 1,9 C 92 % 1031,2 hPa 0,0 l/m 4,0 km/h (1 Bft) O-NO 75 0 min 0 W/m 0,7 C 1,9 C 8,0 km/h (2 Bft)
16.03.2016 00:24 1,9 C 93 % 1031,2 hPa 0,0 l/m 5,9 km/h (2 Bft) O 92 0 min 0 W/m 0,9 C 1,9 C 12,9 km/h (3 Bft)
16.03.2016 00:27 1,9 C 93 % 1031,2 hPa 0,0 l/m 4,4 km/h (1 Bft) NO 39 0 min 0 W/m 0,9 C 1,9 C 16,1 km/h (3 Bft)
16.03.2016 00:30 1,9 C 92 % 1031,3 hPa 0,0 l/m 4,3 km/h (1 Bft) N 360 0 min 0 W/m 0,7 C 1,9 C 9,7 km/h (2 Bft)
16.03.2016 00:33 1,9 C 92 % 1031,2 hPa 0,0 l/m 4,4 km/h (1 Bft) N 355 0 min 0 W/m 0,7 C 1,9 C 12,9 km/h (3 Bft)
16.03.2016 00:36 1,9 C 92 % 1031,3 hPa 0,0 l/m 4,6 km/h (1 Bft) N-NO 25 0 min 0 W/m 0,7 C 1,9 C 11,3 km/h (2 Bft)
16.03.2016 00:39 1,8 C 92 % 1031,3 hPa 0,0 l/m 4,5 km/h (1 Bft) NO 51 0 min 0 W/m 0,6 C 1,8 C 8,0 km/h (2 Bft)
16.03.2016 00:42 1,8 C 92 % 1031,3 hPa 0,0 l/m 3,7 km/h (1 Bft) N-NO 29 0 min 0 W/m 0,6 C 1,8 C 6,4 km/h (2 Bft)
16.03.2016 00:45 1,8 C 92 % 1031,4 hPa 0,0 l/m 4,1 km/h (1 Bft) NO 34 0 min 0 W/m 0,6 C 1,8 C 6,4 km/h (2 Bft)
16.03.2016 00:48 1,8 C 93 % 1031,4 hPa 0,0 l/m 5,5 km/h (2 Bft) N 5 0 min 0 W/m 0,8 C 1,8 C 14,5 km/h (3 Bft)
16.03.2016 00:51 1,8 C 93 % 1031,4 hPa 0,0 l/m 5,5 km/h (2 Bft) N 355 0 min 0 W/m 0,8 C 1,8 C 11,3 km/h (2 Bft)
16.03.2016 00:54 1,8 C 93 % 1031,4 hPa 0,0 l/m 3,8 km/h (1 Bft) N-NO 33 0 min 0 W/m 0,8 C 1,8 C 6,4 km/h (2 Bft)
16.03.2016 00:57 1,8 C 93 % 1031,4 hPa 0,0 l/m 4,7 km/h (1 Bft) NO 35 0 min 0 W/m 0,8 C 1,8 C 11,3 km/h (2 Bft)
16.03.2016 01:00 1,8 C 93 % 1031,5 hPa 0,0 l/m 3,1 km/h (1 Bft) N-NO 30 0 min 0 W/m 0,8 C 1,8 C 4,8 km/h (1 Bft)
16.03.2016 01:03 1,7 C 93 % 1031,4 hPa 0,0 l/m 3,7 km/h (1 Bft) NO 34 0 min 0 W/m 0,7 C 1,7 C 6,4 km/h (2 Bft)
16.03.2016 01:06 1,7 C 93 % 1031,5 hPa 0,0 l/m 5,0 km/h (1 Bft) N-NO 22 0 min 0 W/m 0,7 C 1,7 C 8,0 km/h (2 Bft)
16.03.2016 01:09 1,6 C 93 % 1031,5 hPa 0,0 l/m 4,4 km/h (1 Bft) NO 35 0 min 0 W/m 0,6 C 1,6 C 9,7 km/h (2 Bft)
16.03.2016 01:12 1,6 C 93 % 1031,5 hPa 0,0 l/m 3,4 km/h (1 Bft) N 355 0 min 0 W/m 0,6 C 1,6 C 6,4 km/h (2 Bft)
16.03.2016 01:15 1,6 C 93 % 1031,6 hPa 0,0 l/m 3,7 km/h (1 Bft) NO 49 0 min 0 W/m 0,6 C 1,6 C 6,4 km/h (2 Bft)
16.03.2016 01:18 1,5 C 93 % 1031,7 hPa 0,0 l/m 3,0 km/h (1 Bft) NO 40 0 min 0 W/m 0,5 C 1,5 C 4,8 km/h (1 Bft)
16.03.2016 01:21 1,4 C 93 % 1031,7 hPa 0,0 l/m 3,4 km/h (1 Bft) N-NO 17 0 min 0 W/m 0,4 C 1,4 C 8,0 km/h (2 Bft)
16.03.2016 01:24 1,4 C 93 % 1031,7 hPa 0,0 l/m 3,7 km/h (1 Bft) N-NO 30 0 min 0 W/m 0,4 C 1,4 C 8,0 km/h (2 Bft)
16.03.2016 01:27 1,4 C 93 % 1031,7 hPa 0,0 l/m 3,2 km/h (1 Bft) N-NO 32 0 min 0 W/m 0,4 C 1,4 C 6,4 km/h (2 Bft)
16.03.2016 01:30 1,3 C 94 % 1031,8 hPa 0,0 l/m 3,5 km/h (1 Bft) N-NO 23 0 min 0 W/m 0,4 C 1,3 C 4,8 km/h (1 Bft)
16.03.2016 01:33 1,3 C 94 % 1031,8 hPa 0,0 l/m 4,9 km/h (1 Bft) N-NO 18 0 min 0 W/m 0,4 C 1,3 C 11,3 km/h (2 Bft)
16.03.2016 01:36 1,4 C 94 % 1031,8 hPa 0,0 l/m 3,4 km/h (1 Bft) O-NO 70 0 min 0 W/m 0,5 C 1,4 C 4,8 km/h (1 Bft)
16.03.2016 01:39 1,4 C 94 % 1031,8 hPa 0,0 l/m 3,2 km/h (1 Bft) N-NO 26 0 min 0 W/m 0,5 C 1,4 C 6,4 km/h (2 Bft)
16.03.2016 01:42 1,4 C 94 % 1031,8 hPa 0,0 l/m 2,6 km/h (1 Bft) NO 43 0 min 0 W/m 0,5 C 1,4 C 4,8 km/h (1 Bft)
16.03.2016 01:45 1,4 C 94 % 1031,9 hPa 0,0 l/m 4,1 km/h (1 Bft) O-NO 58 0 min 0 W/m 0,5 C 1,4 C 6,4 km/h (2 Bft)
16.03.2016 01:48 1,4 C 94 % 1031,8 hPa 0,0 l/m 2,7 km/h (1 Bft) N-NO 12 0 min 0 W/m 0,5 C 1,4 C 4,8 km/h (1 Bft)
16.03.2016 01:51 1,3 C 94 % 1031,9 hPa 0,0 l/m 2,7 km/h (1 Bft) N-NO 12 0 min 0 W/m 0,4 C 1,3 C 6,4 km/h (2 Bft)
16.03.2016 01:54 1,3 C 94 % 1031,9 hPa 0,0 l/m 3,8 km/h (1 Bft) O-NO 66 0 min 0 W/m 0,4 C 1,3 C 6,4 km/h (2 Bft)
16.03.2016 01:57 1,3 C 94 % 1031,9 hPa 0,0 l/m 4,4 km/h (1 Bft) NO 49 0 min 0 W/m 0,4 C 1,3 C 8,0 km/h (2 Bft)
16.03.2016 02:00 1,3 C 94 % 1031,9 hPa 0,0 l/m 3,2 km/h (1 Bft) N-NO 24 0 min 0 W/m 0,4 C 1,3 C 6,4 km/h (2 Bft)
16.03.2016 02:03 1,3 C 94 % 1032,0 hPa 0,0 l/m 4,3 km/h (1 Bft) N-NO 32 0 min 0 W/m 0,4 C 1,3 C 8,0 km/h (2 Bft)
16.03.2016 02:06 1,4 C 94 % 1032,0 hPa 0,0 l/m 3,8 km/h (1 Bft) N-NO 22 0 min 0 W/m 0,5 C 1,4 C 6,4 km/h (2 Bft)
16.03.2016 02:09 1,3 C 94 % 1032,0 hPa 0,0 l/m 5,3 km/h (1 Bft) N 11 0 min 0 W/m 0,4 C 1,3 C 11,3 km/h (2 Bft)
16.03.2016 02:12 1,4 C 94 % 1032,0 hPa 0,0 l/m 4,1 km/h (1 Bft) NO 34 0 min 0 W/m 0,5 C 1,4 C 11,3 km/h (2 Bft)
16.03.2016 02:15 1,4 C 94 % 1032,0 hPa 0,0 l/m 3,9 km/h (1 Bft) O 81 0 min 0 W/m 0,5 C 1,4 C 8,0 km/h (2 Bft)
16.03.2016 02:18 1,4 C 94 % 1032,0 hPa 0,0 l/m 5,0 km/h (1 Bft) N-NO 26 0 min 0 W/m 0,5 C 1,4 C 9,7 km/h (2 Bft)
16.03.2016 02:21 1,4 C 94 % 1032,0 hPa 0,0 l/m 4,9 km/h (1 Bft) N-NO 32 0 min 0 W/m 0,5 C 1,4 C 14,5 km/h (3 Bft)
16.03.2016 02:24 1,5 C 94 % 1032,0 hPa 0,0 l/m 5,3 km/h (1 Bft) NO 36 0 min 0 W/m 0,6 C 1,5 C 11,3 km/h (2 Bft)
16.03.2016 02:27 1,5 C 94 % 1032,0 hPa 0,0 l/m 3,9 km/h (1 Bft) NO 47 0 min 0 W/m 0,6 C 1,5 C 6,4 km/h (2 Bft)
16.03.2016 02:30 1,4 C 94 % 1032,1 hPa 0,0 l/m 5,0 km/h (1 Bft) N-NO 17 0 min 0 W/m 0,5 C 1,4 C 11,3 km/h (2 Bft)
16.03.2016 02:33 1,5 C 94 % 1032,1 hPa 0,0 l/m 4,1 km/h (1 Bft) O-NO 74 0 min 0 W/m 0,6 C 1,5 C 8,0 km/h (2 Bft)
16.03.2016 02:36 1,5 C 94 % 1032,1 hPa 0,0 l/m 5,3 km/h (1 Bft) NO 42 0 min 0 W/m 0,6 C 1,5 C 11,3 km/h (2 Bft)
16.03.2016 02:39 1,6 C 94 % 1032,1 hPa 0,0 l/m 5,2 km/h (1 Bft) N 9 0 min 0 W/m 0,7 C 1,6 C 11,3 km/h (2 Bft)
16.03.2016 02:42 1,6 C 94 % 1032,2 hPa 0,0 l/m 5,7 km/h (2 Bft) NO 55 0 min 0 W/m 0,7 C 1,6 C 12,9 km/h (3 Bft)
16.03.2016 02:45 1,6 C 94 % 1032,1 hPa 0,0 l/m 4,9 km/h (1 Bft) N 360 0 min 0 W/m 0,7 C 1,6 C 16,1 km/h (3 Bft)
16.03.2016 02:48 1,6 C 94 % 1032,2 hPa 0,0 l/m 5,1 km/h (1 Bft) NO 41 0 min 0 W/m 0,7 C 1,6 C 11,3 km/h (2 Bft)
16.03.2016 02:51 1,6 C 94 % 1032,2 hPa 0,0 l/m 5,6 km/h (2 Bft) O-NO 57 0 min 0 W/m 0,7 C 1,6 C 11,3 km/h (2 Bft)
16.03.2016 02:54 1,6 C 94 % 1032,2 hPa 0,0 l/m 4,7 km/h (1 Bft) O-NO 72 0 min 0 W/m 0,7 C 1,6 C 12,9 km/h (3 Bft)
16.03.2016 02:57 1,6 C 94 % 1032,2 hPa 0,0 l/m 4,8 km/h (1 Bft) NO 39 0 min 0 W/m 0,7 C 1,6 C 9,7 km/h (2 Bft)
16.03.2016 03:00 1,6 C 94 % 1032,2 hPa 0,0 l/m 3,8 km/h (1 Bft) N 5 0 min 0 W/m 0,7 C 1,6 C 8,0 km/h (2 Bft)
16.03.2016 03:03 1,6 C 94 % 1032,2 hPa 0,0 l/m 4,4 km/h (1 Bft) NO 51 0 min 0 W/m 0,7 C 1,6 C 12,9 km/h (3 Bft)
16.03.2016 03:06 1,6 C 94 % 1032,2 hPa 0,0 l/m 4,3 km/h (1 Bft) N-NO 30 0 min 0 W/m 0,7 C 1,6 C 8,0 km/h (2 Bft)
16.03.2016 03:09 1,4 C 94 % 1032,2 hPa 0,0 l/m 4,9 km/h (1 Bft) N-NO 13 0 min 0 W/m 0,5 C 1,4 C 11,3 km/h (2 Bft)
16.03.2016 03:12 1,4 C 94 % 1032,2 hPa 0,0 l/m 3,4 km/h (1 Bft) NO 34 0 min 0 W/m 0,5 C 1,4 C 6,4 km/h (2 Bft)
16.03.2016 03:15 1,4 C 94 % 1032,2 hPa 0,0 l/m 4,4 km/h (1 Bft) NO 34 0 min 0 W/m 0,5 C 1,4 C 8,0 km/h (2 Bft)
16.03.2016 03:18 1,4 C 94 % 1032,2 hPa 0,0 l/m 4,1 km/h (1 Bft) NO 36 0 min 0 W/m 0,5 C 1,4 C 8,0 km/h (2 Bft)
16.03.2016 03:21 1,3 C 94 % 1032,2 hPa 0,0 l/m 4,3 km/h (1 Bft) N-NO 19 0 min 0 W/m 0,4 C 1,3 C 9,7 km/h (2 Bft)
16.03.2016 03:24 1,3 C 94 % 1032,3 hPa 0,0 l/m 5,4 km/h (2 Bft) O-SO 115 0 min 0 W/m 0,4 C 1,3 C 11,3 km/h (2 Bft)
16.03.2016 03:27 1,4 C 94 % 1032,3 hPa 0,0 l/m 3,8 km/h (1 Bft) O-NO 63 0 min 0 W/m 0,5 C 1,4 C 6,4 km/h (2 Bft)
16.03.2016 03:30 1,4 C 94 % 1032,3 hPa 0,0 l/m 4,9 km/h (1 Bft) NO 52 0 min 0 W/m 0,5 C 1,4 C 11,3 km/h (2 Bft)
16.03.2016 03:33 1,4 C 94 % 1032,2 hPa 0,0 l/m 3,3 km/h (1 Bft) NO 55 0 min 0 W/m 0,5 C 1,4 C 4,8 km/h (1 Bft)
16.03.2016 03:36 1,4 C 94 % 1032,2 hPa 0,0 l/m 5,6 km/h (2 Bft) NO 52 0 min 0 W/m 0,5 C 1,4 C 9,7 km/h (2 Bft)
16.03.2016 03:39 1,3 C 94 % 1032,2 hPa 0,0 l/m 3,7 km/h (1 Bft) N-NO 17 0 min 0 W/m 0,4 C 1,3 C 6,4 km/h (2 Bft)
16.03.2016 03:42 1,3 C 94 % 1032,3 hPa 0,0 l/m 4,5 km/h (1 Bft) NO 36 0 min 0 W/m 0,4 C 1,3 C 12,9 km/h (3 Bft)
16.03.2016 03:45 1,3 C 94 % 1032,3 hPa 0,0 l/m 4,9 km/h (1 Bft) N-NO 32 0 min 0 W/m 0,4 C 1,3 C 11,3 km/h (2 Bft)
16.03.2016 03:48 1,3 C 94 % 1032,3 hPa 0,0 l/m 4,6 km/h (1 Bft) S-SO 154 0 min 0 W/m 0,4 C 1,3 C 11,3 km/h (2 Bft)
16.03.2016 03:51 1,3 C 94 % 1032,3 hPa 0,0 l/m 4,8 km/h (1 Bft) N-NO 21 0 min 0 W/m 0,4 C 1,3 C 11,3 km/h (2 Bft)
16.03.2016 03:54 1,4 C 94 % 1032,3 hPa 0,0 l/m 4,0 km/h (1 Bft) O-NO 71 0 min 0 W/m 0,5 C 1,4 C 6,4 km/h (2 Bft)
16.03.2016 03:57 1,3 C 94 % 1032,3 hPa 0,0 l/m 4,9 km/h (1 Bft) O-NO 75 0 min 0 W/m 0,4 C 1,3 C 8,0 km/h (2 Bft)
16.03.2016 04:00 1,4 C 94 % 1032,3 hPa 0,0 l/m 5,2 km/h (1 Bft) O-NO 62 0 min 0 W/m 0,5 C 1,4 C 8,0 km/h (2 Bft)
16.03.2016 04:03 1,4 C 94 % 1032,3 hPa 0,0 l/m 4,9 km/h (1 Bft) O-NO 58 0 min 0 W/m 0,5 C 1,4 C 12,9 km/h (3 Bft)
16.03.2016 04:06 1,4 C 94 % 1032,3 hPa 0,0 l/m 3,5 km/h (1 Bft) NO 34 0 min 0 W/m 0,5 C 1,4 C 6,4 km/h (2 Bft)
16.03.2016 04:09 1,3 C 94 % 1032,3 hPa 0,0 l/m 4,3 km/h (1 Bft) O-NO 64 0 min 0 W/m 0,4 C 1,3 C 11,3 km/h (2 Bft)
16.03.2016 04:12 1,3 C 94 % 1032,4 hPa 0,0 l/m 3,6 km/h (1 Bft) N-NW 338 0 min 0 W/m 0,4 C 1,3 C 8,0 km/h (2 Bft)
16.03.2016 04:15 1,3 C 94 % 1032,4 hPa 0,0 l/m 6,3 km/h (2 Bft) O-NO 60 0 min 0 W/m 0,4 C 1,3 C 16,1 km/h (3 Bft)
16.03.2016 04:18 1,3 C 94 % 1032,4 hPa 0,0 l/m 3,7 km/h (1 Bft) NO 43 0 min 0 W/m 0,4 C 1,3 C 6,4 km/h (2 Bft)
16.03.2016 04:21 1,2 C 94 % 1032,4 hPa 0,0 l/m 3,2 km/h (1 Bft) O-NO 62 0 min 0 W/m 0,3 C 1,2 C 6,4 km/h (2 Bft)
16.03.2016 04:24 1,2 C 94 % 1032,4 hPa 0,0 l/m 3,3 km/h (1 Bft) N-NO 32 0 min 0 W/m 0,3 C 1,2 C 6,4 km/h (2 Bft)
16.03.2016 04:27 1,2 C 94 % 1032,5 hPa 0,0 l/m 3,8 km/h (1 Bft) NO 37 0 min 0 W/m 0,3 C 1,2 C 8,0 km/h (2 Bft)
16.03.2016 04:30 1,3 C 95 % 1032,4 hPa 0,0 l/m 5,1 km/h (1 Bft) O-SO 109 0 min 0 W/m 0,6 C 1,3 C 16,1 km/h (3 Bft)
16.03.2016 04:33 1,3 C 95 % 1032,4 hPa 0,0 l/m 3,5 km/h (1 Bft) NO 46 0 min 0 W/m 0,6 C 1,3 C 8,0 km/h (2 Bft)
16.03.2016 04:36 1,3 C 95 % 1032,5 hPa 0,0 l/m 5,1 km/h (1 Bft) O 95 0 min 0 W/m 0,6 C 1,3 C 8,0 km/h (2 Bft)
16.03.2016 04:39 1,3 C 95 % 1032,5 hPa 0,0 l/m 3,7 km/h (1 Bft) NO 36 0 min 0 W/m 0,6 C 1,3 C 6,4 km/h (2 Bft)
16.03.2016 04:42 1,3 C 95 % 1032,5 hPa 0,0 l/m 4,3 km/h (1 Bft) NW 316 0 min 0 W/m 0,6 C 1,3 C 8,0 km/h (2 Bft)
16.03.2016 04:45 1,3 C 95 % 1032,5 hPa 0,0 l/m 5,1 km/h (1 Bft) N-NO 32 0 min 0 W/m 0,6 C 1,3 C 9,7 km/h (2 Bft)
16.03.2016 04:48 1,3 C 95 % 1032,6 hPa 0,0 l/m 4,8 km/h (1 Bft) NO 51 0 min 0 W/m 0,6 C 1,3 C 8,0 km/h (2 Bft)
16.03.2016 04:51 1,3 C 95 % 1032,6 hPa 0,0 l/m 3,3 km/h (1 Bft) N 11 0 min 0 W/m 0,6 C 1,3 C 6,4 km/h (2 Bft)
16.03.2016 04:54 1,4 C 95 % 1032,6 hPa 0,0 l/m 3,7 km/h (1 Bft) O-NO 77 0 min 0 W/m 0,7 C 1,4 C 8,0 km/h (2 Bft)
16.03.2016 04:57 1,5 C 95 % 1032,6 hPa 0,0 l/m 3,9 km/h (1 Bft) N-NO 16 0 min 0 W/m 0,8 C 1,5 C 9,7 km/h (2 Bft)
16.03.2016 05:00 1,7 C 95 % 1032,7 hPa 0,0 l/m 3,2 km/h (1 Bft) N-NO 25 0 min 0 W/m 1,0 C 1,7 C 8,0 km/h (2 Bft)
16.03.2016 05:03 1,8 C 95 % 1032,7 hPa 0,0 l/m 3,7 km/h (1 Bft) NO 53 0 min 0 W/m 1,1 C 1,8 C 4,8 km/h (1 Bft)
16.03.2016 05:06 1,8 C 95 % 1032,7 hPa 0,0 l/m 5,1 km/h (1 Bft) NO 38 0 min 0 W/m 1,1 C 1,8 C 14,5 km/h (3 Bft)
16.03.2016 05:09 1,9 C 95 % 1032,8 hPa 0,0 l/m 2,8 km/h (1 Bft) N-NO 30 0 min 0 W/m 1,2 C 1,9 C 6,4 km/h (2 Bft)
16.03.2016 05:12 2,0 C 95 % 1032,8 hPa 0,0 l/m 5,2 km/h (1 Bft) N-NO 33 0 min 0 W/m 1,3 C 2,0 C 11,3 km/h (2 Bft)
16.03.2016 05:15 2,1 C 95 % 1032,7 hPa 0,0 l/m 3,1 km/h (1 Bft) NO 34 0 min 0 W/m 1,4 C 2,1 C 6,4 km/h (2 Bft)
16.03.2016 05:18 2,0 C 95 % 1032,8 hPa 0,0 l/m 3,3 km/h (1 Bft) N-NO 20 0 min 0 W/m 1,3 C 2,0 C 9,7 km/h (2 Bft)
16.03.2016 05:21 2,0 C 94 % 1032,8 hPa 0,0 l/m 3,8 km/h (1 Bft) NO 53 0 min 0 W/m 1,1 C 2,0 C 8,0 km/h (2 Bft)
16.03.2016 05:24 1,9 C 94 % 1032,8 hPa 0,0 l/m 2,5 km/h (1 Bft) N-NW 346 0 min 0 W/m 1,0 C 1,9 C 4,8 km/h (1 Bft)
16.03.2016 05:27 1,8 C 94 % 1032,9 hPa 0,0 l/m 3,1 km/h (1 Bft) O-NO 67 0 min 0 W/m 0,9 C 1,8 C 6,4 km/h (2 Bft)
16.03.2016 05:30 1,7 C 94 % 1032,9 hPa 0,0 l/m 2,2 km/h (1 Bft) NO 53 0 min 0 W/m 0,8 C 1,7 C 3,2 km/h (1 Bft)
16.03.2016 05:33 1,7 C 94 % 1032,9 hPa 0,0 l/m 4,6 km/h (1 Bft) O 79 0 min 0 W/m 0,8 C 1,7 C 12,9 km/h (3 Bft)
16.03.2016 05:36 1,6 C 94 % 1033,0 hPa 0,0 l/m 4,6 km/h (1 Bft) O-NO 58 0 min 0 W/m 0,7 C 1,6 C 9,7 km/h (2 Bft)
16.03.2016 05:39 1,7 C 95 % 1033,0 hPa 0,0 l/m 4,2 km/h (1 Bft) NO 42 0 min 0 W/m 1,0 C 1,7 C 8,0 km/h (2 Bft)
16.03.2016 05:42 1,7 C 94 % 1033,0 hPa 0,0 l/m 2,4 km/h (1 Bft) N-NO 28 0 min 0 W/m 0,8 C 1,7 C 4,8 km/h (1 Bft)
16.03.2016 05:45 1,6 C 94 % 1033,0 hPa 0,0 l/m 3,4 km/h (1 Bft) N-NO 33 0 min 0 W/m 0,7 C 1,6 C 8,0 km/h (2 Bft)
16.03.2016 05:48 1,5 C 94 % 1033,1 hPa 0,0 l/m 3,9 km/h (1 Bft) N-NO 32 0 min 0 W/m 0,6 C 1,5 C 8,0 km/h (2 Bft)
16.03.2016 05:51 1,5 C 94 % 1033,2 hPa 0,0 l/m 2,2 km/h (1 Bft) O 83 0 min 0 W/m 0,6 C 1,5 C 6,4 km/h (2 Bft)
16.03.2016 05:54 1,4 C 94 % 1033,2 hPa 0,0 l/m 2,9 km/h (1 Bft) N-NO 17 0 min 0 W/m 0,5 C 1,4 C 4,8 km/h (1 Bft)
16.03.2016 05:57 1,4 C 94 % 1033,2 hPa 0,0 l/m 4,3 km/h (1 Bft) O-NO 75 0 min 0 W/m 0,5 C 1,4 C 9,7 km/h (2 Bft)
16.03.2016 06:00 1,4 C 94 % 1033,2 hPa 0,0 l/m 4,6 km/h (1 Bft) O-NO 60 0 min 0 W/m 0,5 C 1,4 C 8,0 km/h (2 Bft)
16.03.2016 06:03 1,3 C 95 % 1033,3 hPa 0,0 l/m 3,8 km/h (1 Bft) NO 46 0 min 0 W/m 0,6 C 1,3 C 6,4 km/h (2 Bft)
16.03.2016 06:06 1,3 C 95 % 1033,3 hPa 0,0 l/m 3,6 km/h (1 Bft) NO 47 0 min 0 W/m 0,6 C 1,3 C 8,0 km/h (2 Bft)
16.03.2016 06:09 1,3 C 95 % 1033,2 hPa 0,0 l/m 3,0 km/h (1 Bft) NO 37 0 min 0 W/m 0,6 C 1,3 C 6,4 km/h (2 Bft)
16.03.2016 06:12 1,2 C 95 % 1033,3 hPa 0,0 l/m 4,2 km/h (1 Bft) NO 38 0 min 0 W/m 0,5 C 1,2 C 9,7 km/h (2 Bft)
16.03.2016 06:15 1,2 C 95 % 1033,3 hPa 0,0 l/m 3,3 km/h (1 Bft) N-NO 31 0 min 0 W/m 0,5 C 1,2 C 8,0 km/h (2 Bft)
16.03.2016 06:18 1,2 C 95 % 1033,2 hPa 0,0 l/m 3,8 km/h (1 Bft) O-NO 77 0 min 0 W/m 0,5 C 1,2 C 8,0 km/h (2 Bft)
16.03.2016 06:21 1,2 C 95 % 1033,3 hPa 0,0 l/m 3,2 km/h (1 Bft) O-NO 78 0 min 0 W/m 0,5 C 1,2 C 6,4 km/h (2 Bft)
16.03.2016 06:24 1,1 C 95 % 1033,3 hPa 0,0 l/m 2,6 km/h (1 Bft) O-NO 78 0 min 0 W/m 0,4 C 1,1 C 4,8 km/h (1 Bft)
16.03.2016 06:27 1,1 C 95 % 1033,2 hPa 0,0 l/m 2,1 km/h (1 Bft) O-NO 72 0 min 0 W/m 0,4 C 1,1 C 6,4 km/h (2 Bft)
16.03.2016 06:30 1,0 C 95 % 1033,3 hPa 0,0 l/m 1,7 km/h (1 Bft) O-NO 76 0 min 0 W/m 0,3 C 1,0 C 4,8 km/h (1 Bft)
16.03.2016 06:33 1,0 C 95 % 1033,4 hPa 0,0 l/m 2,4 km/h (1 Bft) O-NO 63 0 min 0 W/m 0,3 C 1,0 C 4,8 km/h (1 Bft)
16.03.2016 06:36 0,9 C 95 % 1033,4 hPa 0,0 l/m 1,5 km/h (1 Bft) O-NO 57 0 min 0 W/m 0,2 C 0,9 C 4,8 km/h (1 Bft)
16.03.2016 06:39 0,9 C 95 % 1033,4 hPa 0,0 l/m 2,1 km/h (1 Bft) O-NO 78 0 min 0 W/m 0,2 C 0,9 C 6,4 km/h (2 Bft)
16.03.2016 06:42 0,9 C 95 % 1033,4 hPa 0,0 l/m 2,6 km/h (1 Bft) N-NO 27 0 min 5 W/m 0,2 C 0,9 C 4,8 km/h (1 Bft)
16.03.2016 06:45 0,9 C 95 % 1033,4 hPa 0,0 l/m 2,3 km/h (1 Bft) NO 45 0 min 5 W/m 0,2 C 0,9 C 4,8 km/h (1 Bft)
16.03.2016 06:48 1,0 C 95 % 1033,4 hPa 0,0 l/m 3,1 km/h (1 Bft) O-NO 59 0 min 7 W/m 0,3 C 1,0 C 4,8 km/h (1 Bft)
16.03.2016 06:51 1,0 C 95 % 1033,5 hPa 0,0 l/m 2,6 km/h (1 Bft) NO 55 0 min 7 W/m 0,3 C 1,0 C 9,7 km/h (2 Bft)
16.03.2016 06:54 1,0 C 95 % 1033,5 hPa 0,0 l/m 2,4 km/h (1 Bft) NO 46 0 min 7 W/m 0,3 C 1,0 C 4,8 km/h (1 Bft)
16.03.2016 06:57 1,1 C 96 % 1033,6 hPa 0,0 l/m 1,5 km/h (1 Bft) O-NO 70 0 min 9 W/m 0,5 C 1,1 C 4,8 km/h (1 Bft)
16.03.2016 07:00 1,1 C 96 % 1033,6 hPa 0,0 l/m 2,9 km/h (1 Bft) N-NW 348 0 min 9 W/m 0,5 C 1,1 C 4,8 km/h (1 Bft)
16.03.2016 07:03 1,1 C 96 % 1033,7 hPa 0,0 l/m 2,5 km/h (1 Bft) NO 40 0 min 11 W/m 0,5 C 1,1 C 4,8 km/h (1 Bft)
16.03.2016 07:06 1,2 C 96 % 1033,6 hPa 0,0 l/m 3,0 km/h (1 Bft) NO 44 0 min 12 W/m 0,6 C 1,2 C 8,0 km/h (2 Bft)
16.03.2016 07:09 1,2 C 96 % 1033,6 hPa 0,0 l/m 3,7 km/h (1 Bft) N-NO 17 0 min 12 W/m 0,6 C 1,2 C 8,0 km/h (2 Bft)
16.03.2016 07:12 1,2 C 96 % 1033,6 hPa 0,0 l/m 3,6 km/h (1 Bft) O-NO 69 0 min 14 W/m 0,6 C 1,2 C 8,0 km/h (2 Bft)
16.03.2016 07:15 1,2 C 96 % 1033,6 hPa 0,0 l/m 1,6 km/h (1 Bft) N-NO 27 0 min 14 W/m 0,6 C 1,2 C 3,2 km/h (1 Bft)
16.03.2016 07:18 1,3 C 96 % 1033,6 hPa 0,0 l/m 5,1 km/h (1 Bft) NO 46 0 min 16 W/m 0,7 C 1,3 C 9,7 km/h (2 Bft)
16.03.2016 07:21 1,4 C 96 % 1033,6 hPa 0,0 l/m 3,8 km/h (1 Bft) NO 55 0 min 16 W/m 0,8 C 1,4 C 6,4 km/h (2 Bft)
16.03.2016 07:24 1,5 C 96 % 1033,7 hPa 0,0 l/m 4,3 km/h (1 Bft) O-NO 75 0 min 16 W/m 0,9 C 1,5 C 9,7 km/h (2 Bft)
16.03.2016 07:27 1,6 C 96 % 1033,7 hPa 0,0 l/m 4,0 km/h (1 Bft) N-NO 31 0 min 18 W/m 1,0 C 1,6 C 8,0 km/h (2 Bft)
16.03.2016 07:30 1,6 C 96 % 1033,7 hPa 0,0 l/m 3,8 km/h (1 Bft) O 101 0 min 18 W/m 1,0 C 1,6 C 6,4 km/h (2 Bft)
16.03.2016 07:33 1,6 C 96 % 1033,7 hPa 0,0 l/m 4,4 km/h (1 Bft) O 87 0 min 18 W/m 1,0 C 1,6 C 11,3 km/h (2 Bft)
16.03.2016 07:36 1,7 C 96 % 1033,8 hPa 0,0 l/m 3,9 km/h (1 Bft) N-NO 26 0 min 19 W/m 1,1 C 1,7 C 12,9 km/h (3 Bft)
16.03.2016 07:39 1,8 C 96 % 1033,8 hPa 0,0 l/m 4,0 km/h (1 Bft) O-NO 68 0 min 19 W/m 1,2 C 1,8 C 8,0 km/h (2 Bft)
16.03.2016 07:42 1,9 C 96 % 1033,9 hPa 0,0 l/m 3,9 km/h (1 Bft) O-NO 63 0 min 21 W/m 1,3 C 1,9 C 8,0 km/h (2 Bft)
16.03.2016 07:45 1,9 C 96 % 1033,9 hPa 0,0 l/m 4,8 km/h (1 Bft) NO 51 0 min 21 W/m 1,3 C 1,9 C 17,7 km/h (3 Bft)
16.03.2016 07:48 2,1 C 96 % 1033,9 hPa 0,0 l/m 5,6 km/h (2 Bft) N-NW 341 0 min 21 W/m 1,5 C 2,1 C 14,5 km/h (3 Bft)
16.03.2016 07:51 2,2 C 95 % 1033,9 hPa 0,0 l/m 4,2 km/h (1 Bft) O 85 0 min 23 W/m 1,5 C 2,2 C 8,0 km/h (2 Bft)
16.03.2016 07:54 2,2 C 95 % 1033,9 hPa 0,0 l/m 4,9 km/h (1 Bft) NO 38 0 min 25 W/m 1,5 C 2,2 C 9,7 km/h (2 Bft)
16.03.2016 07:57 2,2 C 95 % 1034,0 hPa 0,0 l/m 2,9 km/h (1 Bft) N-NO 16 0 min 23 W/m 1,5 C 2,2 C 4,8 km/h (1 Bft)
16.03.2016 08:00 2,3 C 95 % 1034,0 hPa 0,0 l/m 3,9 km/h (1 Bft) NO 55 0 min 23 W/m 1,6 C 2,3 C 8,0 km/h (2 Bft)
16.03.2016 08:03 2,3 C 95 % 1034,0 hPa 0,0 l/m 5,5 km/h (2 Bft) N-NO 24 0 min 25 W/m 1,6 C 2,3 C 9,7 km/h (2 Bft)
16.03.2016 08:06 2,4 C 94 % 1034,0 hPa 0,0 l/m 4,2 km/h (1 Bft) NO 36 0 min 25 W/m 1,5 C 2,4 C 9,7 km/h (2 Bft)
16.03.2016 08:09 2,4 C 94 % 1034,0 hPa 0,0 l/m 4,7 km/h (1 Bft) NO 37 0 min 26 W/m 1,5 C 2,4 C 14,5 km/h (3 Bft)
16.03.2016 08:12 2,4 C 94 % 1034,1 hPa 0,0 l/m 4,1 km/h (1 Bft) NO 38 0 min 26 W/m 1,5 C 2,4 C 8,0 km/h (2 Bft)
16.03.2016 08:15 2,5 C 94 % 1034,0 hPa 0,0 l/m 4,5 km/h (1 Bft) N-NO 15 0 min 26 W/m 1,6 C 2,5 C 9,7 km/h (2 Bft)
16.03.2016 08:18 2,6 C 94 % 1034,1 hPa 0,0 l/m 6,1 km/h (2 Bft) O-NO 64 0 min 28 W/m 1,7 C 2,6 C 12,9 km/h (3 Bft)
16.03.2016 08:21 2,7 C 94 % 1034,1 hPa 0,0 l/m 5,8 km/h (2 Bft) N-NO 16 0 min 28 W/m 1,8 C 2,7 C 12,9 km/h (3 Bft)
16.03.2016 08:24 2,7 C 94 % 1034,1 hPa 0,0 l/m 4,5 km/h (1 Bft) O 101 0 min 28 W/m 1,8 C 2,7 C 9,7 km/h (2 Bft)
16.03.2016 08:27 2,8 C 93 % 1034,1 hPa 0,0 l/m 3,2 km/h (1 Bft) N-NO 13 0 min 30 W/m 1,8 C 2,8 C 6,4 km/h (2 Bft)
16.03.2016 08:30 2,8 C 93 % 1034,2 hPa 0,0 l/m 5,5 km/h (2 Bft) N-NO 22 0 min 30 W/m 1,8 C 2,8 C 12,9 km/h (3 Bft)
16.03.2016 08:33 2,9 C 93 % 1034,3 hPa 0,0 l/m 6,9 km/h (2 Bft) O-NO 65 0 min 32 W/m 1,9 C 2,4 C 14,5 km/h (3 Bft)
16.03.2016 08:36 2,9 C 93 % 1034,2 hPa 0,0 l/m 5,2 km/h (1 Bft) N-NO 22 0 min 33 W/m 1,9 C 2,9 C 9,7 km/h (2 Bft)
16.03.2016 08:39 3,0 C 93 % 1034,2 hPa 0,0 l/m 4,0 km/h (1 Bft) N-NO 15 0 min 32 W/m 2,0 C 3,0 C 6,4 km/h (2 Bft)
16.03.2016 08:42 3,1 C 92 % 1034,2 hPa 0,0 l/m 6,3 km/h (2 Bft) N-NO 25 0 min 33 W/m 1,9 C 3,1 C 14,5 km/h (3 Bft)
16.03.2016 08:45 3,1 C 92 % 1034,3 hPa 0,0 l/m 5,2 km/h (1 Bft) NO 43 0 min 33 W/m 1,9 C 3,1 C 12,9 km/h (3 Bft)
16.03.2016 08:48 3,2 C 92 % 1034,4 hPa 0,0 l/m 4,6 km/h (1 Bft) NO 36 0 min 35 W/m 2,0 C 3,2 C 9,7 km/h (2 Bft)
16.03.2016 08:51 3,2 C 92 % 1034,3 hPa 0,0 l/m 6,8 km/h (2 Bft) N-NO 22 0 min 37 W/m 2,0 C 2,8 C 11,3 km/h (2 Bft)
16.03.2016 08:54 3,2 C 92 % 1034,4 hPa 0,0 l/m 4,8 km/h (1 Bft) N 360 0 min 39 W/m 2,0 C 3,2 C 11,3 km/h (2 Bft)
16.03.2016 08:57 3,2 C 92 % 1034,4 hPa 0,0 l/m 4,5 km/h (1 Bft) O-NO 67 0 min 39 W/m 2,0 C 3,2 C 11,3 km/h (2 Bft)
16.03.2016 09:00 3,3 C 92 % 1034,4 hPa 0,0 l/m 6,2 km/h (2 Bft) NO 34 3 min 202 W/m 2,1 C 3,3 C 14,5 km/h (3 Bft)
16.03.2016 09:03 3,4 C 92 % 1034,4 hPa 0,0 l/m 4,5 km/h (1 Bft) NO 42 3 min 213 W/m 2,2 C 3,4 C 8,0 km/h (2 Bft)
16.03.2016 09:06 3,5 C 91 % 1034,4 hPa 0,0 l/m 4,4 km/h (1 Bft) N-NO 22 0 min 58 W/m 2,2 C 3,5 C 8,0 km/h (2 Bft)
16.03.2016 09:09 3,6 C 91 % 1034,4 hPa 0,0 l/m 5,7 km/h (2 Bft) NO 42 3 min 237 W/m 2,3 C 3,6 C 12,9 km/h (3 Bft)
16.03.2016 09:12 3,7 C 91 % 1034,4 hPa 0,0 l/m 5,2 km/h (1 Bft) NO 42 3 min 234 W/m 2,4 C 3,7 C 12,9 km/h (3 Bft)
16.03.2016 09:15 3,8 C 91 % 1034,4 hPa 0,0 l/m 3,7 km/h (1 Bft) N 10 3 min 230 W/m 2,5 C 3,8 C 11,3 km/h (2 Bft)
16.03.2016 09:18 4,0 C 90 % 1034,4 hPa 0,0 l/m 5,0 km/h (1 Bft) NO 39 3 min 221 W/m 2,5 C 4,0 C 16,1 km/h (3 Bft)
16.03.2016 09:21 4,2 C 90 % 1034,4 hPa 0,0 l/m 5,3 km/h (1 Bft) N-NO 18 3 min 206 W/m 2,7 C 4,2 C 9,7 km/h (2 Bft)
16.03.2016 09:24 4,3 C 90 % 1034,4 hPa 0,0 l/m 5,1 km/h (1 Bft) O-NO 63 3 min 199 W/m 2,8 C 4,3 C 14,5 km/h (3 Bft)
16.03.2016 09:27 4,4 C 89 % 1034,4 hPa 0,0 l/m 5,7 km/h (2 Bft) NO 45 3 min 207 W/m 2,7 C 4,4 C 11,3 km/h (2 Bft)
16.03.2016 09:30 4,6 C 89 % 1034,5 hPa 0,0 l/m 5,1 km/h (1 Bft) N 5 3 min 214 W/m 2,9 C 4,6 C 14,5 km/h (3 Bft)
16.03.2016 09:33 4,7 C 88 % 1034,4 hPa 0,0 l/m 7,4 km/h (2 Bft) NO 35 3 min 244 W/m 2,9 C 3,8 C 14,5 km/h (3 Bft)
16.03.2016 09:36 4,7 C 87 % 1034,5 hPa 0,0 l/m 6,7 km/h (2 Bft) NO 38 3 min 248 W/m 2,7 C 4,4 C 14,5 km/h (3 Bft)
16.03.2016 09:39 4,8 C 88 % 1034,4 hPa 0,0 l/m 6,1 km/h (2 Bft) NO 36 3 min 262 W/m 3,0 C 4,8 C 14,5 km/h (3 Bft)
16.03.2016 09:42 4,8 C 87 % 1034,5 hPa 0,0 l/m 5,9 km/h (2 Bft) N-NO 22 3 min 279 W/m 2,8 C 4,8 C 14,5 km/h (3 Bft)
16.03.2016 09:45 4,9 C 87 % 1034,4 hPa 0,0 l/m 6,4 km/h (2 Bft) N-NO 31 3 min 308 W/m 2,9 C 4,9 C 11,3 km/h (2 Bft)
16.03.2016 09:48 5,1 C 87 % 1034,5 hPa 0,0 l/m 3,4 km/h (1 Bft) N-NO 30 3 min 323 W/m 3,1 C 5,1 C 8,0 km/h (2 Bft)
16.03.2016 09:51 5,2 C 87 % 1034,5 hPa 0,0 l/m 4,1 km/h (1 Bft) O-NO 76 3 min 334 W/m 3,2 C 5,2 C 9,7 km/h (2 Bft)
16.03.2016 09:54 5,3 C 86 % 1034,5 hPa 0,0 l/m 4,5 km/h (1 Bft) NO 38 3 min 320 W/m 3,2 C 5,3 C 11,3 km/h (2 Bft)
16.03.2016 09:57 5,3 C 85 % 1034,6 hPa 0,0 l/m 6,3 km/h (2 Bft) O-NO 67 3 min 306 W/m 3,0 C 5,3 C 11,3 km/h (2 Bft)
16.03.2016 10:00 5,3 C 85 % 1034,6 hPa 0,0 l/m 7,0 km/h (2 Bft) O 92 3 min 301 W/m 3,0 C 4,8 C 12,9 km/h (3 Bft)
16.03.2016 10:03 5,4 C 85 % 1034,6 hPa 0,0 l/m 2,9 km/h (1 Bft) N-NO 26 3 min 320 W/m 3,1 C 5,4 C 6,4 km/h (2 Bft)
16.03.2016 10:06 5,6 C 84 % 1034,6 hPa 0,0 l/m 4,4 km/h (1 Bft) O-SO 105 3 min 355 W/m 3,1 C 5,6 C 11,3 km/h (2 Bft)
16.03.2016 10:09 5,7 C 85 % 1034,6 hPa 0,0 l/m 4,5 km/h (1 Bft) O-NO 67 3 min 367 W/m 3,4 C 5,7 C 11,3 km/h (2 Bft)
16.03.2016 10:12 5,7 C 84 % 1034,5 hPa 0,0 l/m 3,2 km/h (1 Bft) N-NO 29 3 min 378 W/m 3,2 C 5,7 C 8,0 km/h (2 Bft)
16.03.2016 10:15 5,9 C 84 % 1034,5 hPa 0,0 l/m 4,3 km/h (1 Bft) NO 51 3 min 385 W/m 3,4 C 5,9 C 8,0 km/h (2 Bft)
16.03.2016 10:18 5,8 C 83 % 1034,5 hPa 0,0 l/m 7,7 km/h (2 Bft) N-NO 26 3 min 385 W/m 3,1 C 4,7 C 16,1 km/h (3 Bft)
16.03.2016 10:21 5,8 C 83 % 1034,5 hPa 0,0 l/m 5,5 km/h (2 Bft) O 83 3 min 399 W/m 3,1 C 5,8 C 9,7 km/h (2 Bft)
16.03.2016 10:24 6,0 C 84 % 1034,5 hPa 0,0 l/m 4,2 km/h (1 Bft) N 360 3 min 406 W/m 3,5 C 6,0 C 8,0 km/h (2 Bft)
16.03.2016 10:27 6,1 C 82 % 1034,6 hPa 0,0 l/m 6,1 km/h (2 Bft) NO 48 3 min 411 W/m 3,3 C 6,1 C 11,3 km/h (2 Bft)
16.03.2016 10:30 6,1 C 82 % 1034,6 hPa 0,0 l/m 5,3 km/h (1 Bft) O-SO 113 3 min 411 W/m 3,3 C 6,1 C 11,3 km/h (2 Bft)
16.03.2016 10:33 6,2 C 82 % 1034,6 hPa 0,0 l/m 4,4 km/h (1 Bft) NO 36 3 min 410 W/m 3,4 C 6,2 C 8,0 km/h (2 Bft)
16.03.2016 10:36 6,3 C 82 % 1034,6 hPa 0,0 l/m 5,6 km/h (2 Bft) NO 55 3 min 418 W/m 3,5 C 6,3 C 11,3 km/h (2 Bft)
16.03.2016 10:39 6,4 C 83 % 1034,5 hPa 0,0 l/m 3,8 km/h (1 Bft) NO 44 3 min 427 W/m 3,7 C 6,4 C 8,0 km/h (2 Bft)
16.03.2016 10:42 6,7 C 82 % 1034,5 hPa 0,0 l/m 3,6 km/h (1 Bft) NO 41 3 min 432 W/m 3,8 C 6,7 C 9,7 km/h (2 Bft)
16.03.2016 10:45 6,8 C 82 % 1034,6 hPa 0,0 l/m 4,1 km/h (1 Bft) NO 39 3 min 436 W/m 3,9 C 6,8 C 8,0 km/h (2 Bft)
16.03.2016 10:48 6,9 C 81 % 1034,6 hPa 0,0 l/m 4,4 km/h (1 Bft) NO 47 3 min 441 W/m 3,9 C 6,9 C 11,3 km/h (2 Bft)
16.03.2016 10:51 6,9 C 79 % 1034,5 hPa 0,0 l/m 3,7 km/h (1 Bft) SW 229 3 min 446 W/m 3,5 C 6,9 C 9,7 km/h (2 Bft)
16.03.2016 10:54 7,0 C 79 % 1034,6 hPa 0,0 l/m 5,7 km/h (2 Bft) SO 124 3 min 454 W/m 3,6 C 7,0 C 12,9 km/h (3 Bft)
16.03.2016 10:57 6,9 C 78 % 1034,6 hPa 0,0 l/m 7,3 km/h (2 Bft) NO 35 3 min 455 W/m 3,3 C 6,2 C 20,9 km/h (4 Bft)
16.03.2016 11:00 7,0 C 79 % 1034,6 hPa 0,0 l/m 6,6 km/h (2 Bft) O-NO 67 3 min 455 W/m 3,6 C 6,9 C 12,9 km/h (3 Bft)
16.03.2016 11:03 7,1 C 77 % 1034,6 hPa 0,0 l/m 7,1 km/h (2 Bft) N-NW 345 3 min 454 W/m 3,3 C 6,5 C 17,7 km/h (3 Bft)
16.03.2016 11:06 6,8 C 77 % 1034,6 hPa 0,0 l/m 7,6 km/h (2 Bft) O-NO 63 3 min 450 W/m 3,1 C 5,8 C 20,9 km/h (4 Bft)
16.03.2016 11:09 6,9 C 78 % 1034,6 hPa 0,0 l/m 6,4 km/h (2 Bft) S-SO 159 3 min 446 W/m 3,3 C 6,9 C 14,5 km/h (3 Bft)
16.03.2016 11:12 7,2 C 77 % 1034,6 hPa 0,0 l/m 5,8 km/h (2 Bft) N 355 3 min 439 W/m 3,4 C 7,2 C 12,9 km/h (3 Bft)
16.03.2016 11:15 7,3 C 77 % 1034,6 hPa 0,0 l/m 5,7 km/h (2 Bft) NO 40 3 min 436 W/m 3,5 C 7,3 C 9,7 km/h (2 Bft)
16.03.2016 11:18 7,2 C 76 % 1034,6 hPa 0,0 l/m 8,7 km/h (2 Bft) NO 44 3 min 427 W/m 3,3 C 5,4 C 19,3 km/h (3 Bft)
16.03.2016 11:21 7,3 C 77 % 1034,4 hPa 0,0 l/m 6,0 km/h (2 Bft) O-NO 70 3 min 420 W/m 3,5 C 7,3 C 17,7 km/h (3 Bft)
16.03.2016 11:24 7,4 C 76 % 1034,5 hPa 0,0 l/m 5,9 km/h (2 Bft) NO 41 3 min 413 W/m 3,5 C 7,4 C 12,9 km/h (3 Bft)
16.03.2016 11:27 7,6 C 77 % 1034,5 hPa 0,0 l/m 7,2 km/h (2 Bft) O 82 3 min 406 W/m 3,8 C 7,0 C 20,9 km/h (4 Bft)
16.03.2016 11:30 7,7 C 74 % 1034,5 hPa 0,0 l/m 8,1 km/h (2 Bft) O 80 3 min 403 W/m 3,4 C 6,4 C 14,5 km/h (3 Bft)
16.03.2016 11:33 7,7 C 74 % 1034,5 hPa 0,0 l/m 6,7 km/h (2 Bft) NO 46 3 min 397 W/m 3,4 C 7,5 C 16,1 km/h (3 Bft)
16.03.2016 11:36 8,1 C 75 % 1034,4 hPa 0,0 l/m 5,0 km/h (1 Bft) SO 132 3 min 396 W/m 3,9 C 8,1 C 12,9 km/h (3 Bft)
16.03.2016 11:39 8,2 C 72 % 1034,4 hPa 0,0 l/m 7,7 km/h (2 Bft) O 87 3 min 396 W/m 3,5 C 7,2 C 16,1 km/h (3 Bft)
16.03.2016 11:42 8,2 C 72 % 1034,4 hPa 0,0 l/m 4,2 km/h (1 Bft) O-NO 67 3 min 399 W/m 3,5 C 8,2 C 6,4 km/h (2 Bft)
16.03.2016 11:45 8,4 C 72 % 1034,4 hPa 0,0 l/m 3,7 km/h (1 Bft) SO 142 3 min 403 W/m 3,7 C 8,4 C 6,4 km/h (2 Bft)
16.03.2016 11:48 8,6 C 71 % 1034,4 hPa 0,0 l/m 6,4 km/h (2 Bft) O-NO 77 3 min 411 W/m 3,6 C 8,6 C 16,1 km/h (3 Bft)
16.03.2016 11:51 8,5 C 71 % 1034,3 hPa 0,0 l/m 4,9 km/h (1 Bft) O 88 3 min 420 W/m 3,5 C 8,5 C 8,0 km/h (2 Bft)
16.03.2016 11:54 8,5 C 72 % 1034,3 hPa 0,0 l/m 6,3 km/h (2 Bft) NO 37 3 min 431 W/m 3,7 C 8,5 C 12,9 km/h (3 Bft)
16.03.2016 11:57 8,3 C 70 % 1034,2 hPa 0,0 l/m 6,9 km/h (2 Bft) NO 34 3 min 448 W/m 3,2 C 7,9 C 12,9 km/h (3 Bft)
16.03.2016 12:00 8,4 C 70 % 1034,2 hPa 0,0 l/m 6,9 km/h (2 Bft) N-NO 33 3 min 459 W/m 3,3 C 8,0 C 16,1 km/h (3 Bft)
16.03.2016 12:03 8,4 C 71 % 1034,2 hPa 0,0 l/m 7,2 km/h (2 Bft) O-NO 60 3 min 476 W/m 3,5 C 7,8 C 17,7 km/h (3 Bft)
16.03.2016 12:06 8,4 C 69 % 1034,3 hPa 0,0 l/m 5,8 km/h (2 Bft) O-NO 57 3 min 482 W/m 3,0 C 8,4 C 16,1 km/h (3 Bft)
16.03.2016 12:09 8,4 C 69 % 1034,3 hPa 0,0 l/m 6,5 km/h (2 Bft) NO 51 3 min 497 W/m 3,0 C 8,3 C 14,5 km/h (3 Bft)
16.03.2016 12:12 8,7 C 68 % 1034,2 hPa 0,0 l/m 5,9 km/h (2 Bft) NO 40 3 min 506 W/m 3,1 C 8,7 C 11,3 km/h (2 Bft)
16.03.2016 12:15 8,7 C 67 % 1034,2 hPa 0,0 l/m 8,0 km/h (2 Bft) NO 44 3 min 517 W/m 2,9 C 7,5 C 16,1 km/h (3 Bft)
16.03.2016 12:18 8,8 C 66 % 1034,2 hPa 0,0 l/m 5,2 km/h (1 Bft) N-NO 30 3 min 526 W/m 2,8 C 8,8 C 11,3 km/h (2 Bft)
16.03.2016 12:21 8,8 C 69 % 1034,2 hPa 0,0 l/m 8,9 km/h (2 Bft) NO 53 3 min 529 W/m 3,4 C 7,0 C 19,3 km/h (3 Bft)
16.03.2016 12:24 9,0 C 67 % 1034,2 hPa 0,0 l/m 5,9 km/h (2 Bft) N-NO 28 3 min 531 W/m 3,2 C 9,0 C 11,3 km/h (2 Bft)
16.03.2016 12:27 9,2 C 67 % 1034,2 hPa 0,0 l/m 5,8 km/h (2 Bft) NO 40 3 min 531 W/m 3,4 C 9,2 C 12,9 km/h (3 Bft)
16.03.2016 12:30 9,2 C 66 % 1034,1 hPa 0,0 l/m 6,5 km/h (2 Bft) O 79 3 min 533 W/m 3,2 C 9,2 C 16,1 km/h (3 Bft)
16.03.2016 12:33 9,2 C 64 % 1034,2 hPa 0,0 l/m 7,4 km/h (2 Bft) N-NW 334 3 min 534 W/m 2,8 C 8,4 C 14,5 km/h (3 Bft)
16.03.2016 12:36 8,9 C 64 % 1034,2 hPa 0,0 l/m 9,4 km/h (2 Bft) NO 37 3 min 536 W/m 2,5 C 6,8 C 17,7 km/h (3 Bft)
16.03.2016 12:39 9,0 C 65 % 1034,1 hPa 0,0 l/m 6,0 km/h (2 Bft) O 96 3 min 536 W/m 2,8 C 9,0 C 19,3 km/h (3 Bft)
16.03.2016 12:42 9,2 C 65 % 1034,0 hPa 0,0 l/m 5,6 km/h (2 Bft) NO 54 3 min 534 W/m 3,0 C 9,2 C 14,5 km/h (3 Bft)
16.03.2016 12:45 9,4 C 63 % 1034,1 hPa 0,0 l/m 6,3 km/h (2 Bft) NO 42 3 min 536 W/m 2,7 C 9,4 C 11,3 km/h (2 Bft)
16.03.2016 12:48 9,3 C 63 % 1034,0 hPa 0,0 l/m 8,3 km/h (2 Bft) N-NO 15 3 min 536 W/m 2,6 C 7,9 C 20,9 km/h (4 Bft)
16.03.2016 12:51 9,2 C 64 % 1034,0 hPa 0,0 l/m 7,3 km/h (2 Bft) O 82 3 min 536 W/m 2,8 C 8,5 C 20,9 km/h (4 Bft)
16.03.2016 12:54 9,2 C 62 % 1033,9 hPa 0,0 l/m 10,3 km/h (2 Bft) NO 43 3 min 536 W/m 2,3 C 6,5 C 17,7 km/h (3 Bft)
16.03.2016 12:57 9,1 C 64 % 1033,9 hPa 0,0 l/m 6,5 km/h (2 Bft) O 89 3 min 534 W/m 2,7 C 9,1 C 11,3 km/h (2 Bft)
16.03.2016 13:00 9,2 C 63 % 1033,9 hPa 0,0 l/m 8,9 km/h (2 Bft) O-NO 71 3 min 534 W/m 2,5 C 7,4 C 17,7 km/h (3 Bft)
16.03.2016 13:03 9,3 C 64 % 1033,9 hPa 0,0 l/m 5,2 km/h (1 Bft) O-NO 60 3 min 533 W/m 2,8 C 9,3 C 11,3 km/h (2 Bft)
16.03.2016 13:06 9,3 C 62 % 1033,9 hPa 0,0 l/m 10,1 km/h (2 Bft) N-NO 27 3 min 536 W/m 2,4 C 6,8 C 17,7 km/h (3 Bft)
16.03.2016 13:09 9,3 C 63 % 1033,9 hPa 0,0 l/m 5,5 km/h (2 Bft) O-SO 117 3 min 533 W/m 2,6 C 9,3 C 16,1 km/h (3 Bft)
16.03.2016 13:12 9,3 C 62 % 1033,8 hPa 0,0 l/m 6,4 km/h (2 Bft) SO 134 3 min 534 W/m 2,4 C 9,3 C 19,3 km/h (3 Bft)
16.03.2016 13:15 9,5 C 64 % 1033,8 hPa 0,0 l/m 4,6 km/h (1 Bft) NO 34 3 min 533 W/m 3,0 C 9,5 C 12,9 km/h (3 Bft)
16.03.2016 13:18 9,7 C 62 % 1033,8 hPa 0,0 l/m 5,9 km/h (2 Bft) N-NW 348 3 min 534 W/m 2,8 C 9,7 C 12,9 km/h (3 Bft)
16.03.2016 13:21 9,9 C 63 % 1033,8 hPa 0,0 l/m 4,4 km/h (1 Bft) NO 39 3 min 529 W/m 3,2 C 9,9 C 11,3 km/h (2 Bft)
16.03.2016 13:24 9,7 C 61 % 1033,8 hPa 0,0 l/m 7,5 km/h (2 Bft) NO 40 3 min 531 W/m 2,5 C 8,9 C 19,3 km/h (3 Bft)
16.03.2016 13:27 9,7 C 62 % 1033,8 hPa 0,0 l/m 5,8 km/h (2 Bft) NO 36 3 min 527 W/m 2,8 C 9,7 C 11,3 km/h (2 Bft)
16.03.2016 13:30 9,9 C 61 % 1033,8 hPa 0,0 l/m 6,0 km/h (2 Bft) O-NO 67 3 min 526 W/m 2,7 C 9,9 C 12,9 km/h (3 Bft)
16.03.2016 13:33 9,8 C 60 % 1033,8 hPa 0,0 l/m 6,4 km/h (2 Bft) NO 55 3 min 524 W/m 2,4 C 9,8 C 14,5 km/h (3 Bft)
16.03.2016 13:36 9,7 C 63 % 1033,7 hPa 0,0 l/m 5,7 km/h (2 Bft) NW 325 3 min 520 W/m 3,0 C 9,7 C 12,9 km/h (3 Bft)
16.03.2016 13:39 9,8 C 63 % 1033,7 hPa 0,0 l/m 5,6 km/h (2 Bft) N-NO 15 3 min 520 W/m 3,1 C 9,8 C 9,7 km/h (2 Bft)
16.03.2016 13:42 9,8 C 63 % 1033,7 hPa 0,0 l/m 6,9 km/h (2 Bft) NO 51 3 min 519 W/m 3,1 C 9,4 C 16,1 km/h (3 Bft)
16.03.2016 13:45 9,9 C 64 % 1033,6 hPa 0,0 l/m 6,8 km/h (2 Bft) NO 39 3 min 512 W/m 3,4 C 9,6 C 14,5 km/h (3 Bft)
16.03.2016 13:48 9,8 C 61 % 1033,6 hPa 0,0 l/m 5,7 km/h (2 Bft) N-NO 15 3 min 512 W/m 2,6 C 9,8 C 16,1 km/h (3 Bft)
16.03.2016 13:51 9,8 C 62 % 1033,6 hPa 0,0 l/m 5,9 km/h (2 Bft) NW 323 3 min 512 W/m 2,9 C 9,8 C 17,7 km/h (3 Bft)
16.03.2016 13:54 10,1 C 63 % 1033,6 hPa 0,0 l/m 4,4 km/h (1 Bft) NO 34 3 min 508 W/m 3,4 C 10,1 C 8,0 km/h (2 Bft)
16.03.2016 13:57 10,2 C 61 % 1033,6 hPa 0,0 l/m 5,0 km/h (1 Bft) N-NO 24 3 min 504 W/m 3,0 C 10,2 C 8,0 km/h (2 Bft)
16.03.2016 14:00 10,3 C 62 % 1033,6 hPa 0,0 l/m 4,2 km/h (1 Bft) O-NO 77 3 min 504 W/m 3,3 C 10,3 C 8,0 km/h (2 Bft)
16.03.2016 14:03 10,1 C 59 % 1033,6 hPa 0,0 l/m 6,6 km/h (2 Bft) O-NO 61 3 min 499 W/m 2,5 C 10,0 C 12,9 km/h (3 Bft)
16.03.2016 14:06 9,9 C 60 % 1033,6 hPa 0,0 l/m 7,3 km/h (2 Bft) NO 49 3 min 496 W/m 2,5 C 9,2 C 16,1 km/h (3 Bft)
16.03.2016 14:09 9,9 C 59 % 1033,4 hPa 0,0 l/m 6,0 km/h (2 Bft) NO 48 3 min 497 W/m 2,3 C 9,9 C 14,5 km/h (3 Bft)
16.03.2016 14:12 9,9 C 60 % 1033,4 hPa 0,0 l/m 7,9 km/h (2 Bft) NO 37 3 min 492 W/m 2,5 C 8,8 C 16,1 km/h (3 Bft)
16.03.2016 14:15 9,9 C 59 % 1033,4 hPa 0,0 l/m 7,0 km/h (2 Bft) SO 134 3 min 489 W/m 2,3 C 9,5 C 16,1 km/h (3 Bft)
16.03.2016 14:18 9,8 C 61 % 1033,5 hPa 0,0 l/m 8,3 km/h (2 Bft) O-NO 65 3 min 485 W/m 2,6 C 8,4 C 16,1 km/h (3 Bft)
16.03.2016 14:21 9,7 C 60 % 1033,5 hPa 0,0 l/m 8,9 km/h (2 Bft) NO 51 3 min 482 W/m 2,3 C 7,9 C 16,1 km/h (3 Bft)
16.03.2016 14:24 9,7 C 61 % 1033,5 hPa 0,0 l/m 6,9 km/h (2 Bft) NO 49 3 min 476 W/m 2,5 C 9,3 C 12,9 km/h (3 Bft)
16.03.2016 14:27 9,5 C 61 % 1033,5 hPa 0,0 l/m 7,3 km/h (2 Bft) N-NO 30 3 min 466 W/m 2,4 C 8,8 C 16,1 km/h (3 Bft)
16.03.2016 14:30 9,6 C 61 % 1033,4 hPa 0,0 l/m 8,8 km/h (2 Bft) O-NO 74 3 min 448 W/m 2,5 C 7,9 C 16,1 km/h (3 Bft)
16.03.2016 14:33 9,6 C 62 % 1033,4 hPa 0,0 l/m 8,2 km/h (2 Bft) N 355 3 min 434 W/m 2,7 C 8,3 C 17,7 km/h (3 Bft)
16.03.2016 14:36 9,7 C 62 % 1033,2 hPa 0,0 l/m 6,6 km/h (2 Bft) O-NO 57 3 min 413 W/m 2,8 C 9,6 C 12,9 km/h (3 Bft)
16.03.2016 14:39 9,8 C 62 % 1033,2 hPa 0,0 l/m 6,7 km/h (2 Bft) O 82 3 min 397 W/m 2,9 C 9,6 C 14,5 km/h (3 Bft)
16.03.2016 14:42 9,8 C 62 % 1033,2 hPa 0,0 l/m 8,8 km/h (2 Bft) NO 36 3 min 376 W/m 2,9 C 8,1 C 16,1 km/h (3 Bft)
16.03.2016 14:45 9,8 C 62 % 1033,2 hPa 0,0 l/m 5,6 km/h (2 Bft) O-SO 111 3 min 362 W/m 2,9 C 9,8 C 12,9 km/h (3 Bft)
16.03.2016 14:48 9,8 C 61 % 1033,2 hPa 0,0 l/m 8,6 km/h (2 Bft) N 9 3 min 353 W/m 2,6 C 8,2 C 17,7 km/h (3 Bft)
16.03.2016 14:51 9,8 C 61 % 1033,2 hPa 0,0 l/m 7,0 km/h (2 Bft) NO 54 3 min 350 W/m 2,6 C 9,4 C 16,1 km/h (3 Bft)
16.03.2016 14:54 9,8 C 60 % 1033,2 hPa 0,0 l/m 8,1 km/h (2 Bft) O-NO 68 3 min 346 W/m 2,4 C 8,6 C 14,5 km/h (3 Bft)
16.03.2016 14:57 9,9 C 60 % 1033,2 hPa 0,0 l/m 6,9 km/h (2 Bft) NO 46 3 min 346 W/m 2,5 C 9,5 C 14,5 km/h (3 Bft)
16.03.2016 15:00 9,9 C 60 % 1033,1 hPa 0,0 l/m 5,9 km/h (2 Bft) N 355 3 min 343 W/m 2,5 C 9,9 C 11,3 km/h (2 Bft)
16.03.2016 15:03 10,2 C 62 % 1033,1 hPa 0,0 l/m 4,2 km/h (1 Bft) N-NW 344 3 min 330 W/m 3,3 C 10,2 C 9,7 km/h (2 Bft)
16.03.2016 15:06 10,2 C 58 % 1033,1 hPa 0,0 l/m 5,2 km/h (1 Bft) NO 49 3 min 315 W/m 2,3 C 10,2 C 14,5 km/h (3 Bft)
16.03.2016 15:09 10,1 C 60 % 1033,0 hPa 0,0 l/m 6,3 km/h (2 Bft) N 10 3 min 308 W/m 2,7 C 10,1 C 12,9 km/h (3 Bft)
16.03.2016 15:12 9,9 C 60 % 1033,0 hPa 0,0 l/m 4,9 km/h (1 Bft) N-NO 19 3 min 304 W/m 2,5 C 9,9 C 9,7 km/h (2 Bft)
16.03.2016 15:15 10,2 C 60 % 1032,9 hPa 0,0 l/m 5,4 km/h (2 Bft) SO 135 3 min 309 W/m 2,8 C 10,2 C 14,5 km/h (3 Bft)
16.03.2016 15:18 10,2 C 60 % 1032,9 hPa 0,0 l/m 6,1 km/h (2 Bft) NO 35 3 min 329 W/m 2,8 C 10,2 C 12,9 km/h (3 Bft)
16.03.2016 15:21 10,1 C 61 % 1032,8 hPa 0,0 l/m 5,7 km/h (2 Bft) O-NO 66 3 min 345 W/m 2,9 C 10,1 C 14,5 km/h (3 Bft)
16.03.2016 15:24 10,1 C 62 % 1032,8 hPa 0,0 l/m 6,3 km/h (2 Bft) NO 49 3 min 364 W/m 3,2 C 10,1 C 14,5 km/h (3 Bft)
16.03.2016 15:27 10,1 C 62 % 1032,8 hPa 0,0 l/m 4,8 km/h (1 Bft) N-NO 21 3 min 373 W/m 3,2 C 10,1 C 9,7 km/h (2 Bft)
16.03.2016 15:30 10,1 C 61 % 1032,7 hPa 0,0 l/m 6,6 km/h (2 Bft) NO 46 3 min 374 W/m 2,9 C 10,0 C 14,5 km/h (3 Bft)
16.03.2016 15:33 9,9 C 61 % 1032,8 hPa 0,0 l/m 3,8 km/h (1 Bft) O-NO 76 3 min 369 W/m 2,7 C 9,9 C 6,4 km/h (2 Bft)
16.03.2016 15:36 9,9 C 61 % 1032,7 hPa 0,0 l/m 3,5 km/h (1 Bft) NO 43 3 min 364 W/m 2,7 C 9,9 C 6,4 km/h (2 Bft)
16.03.2016 15:39 10,1 C 62 % 1032,7 hPa 0,0 l/m 3,2 km/h (1 Bft) N-NW 333 3 min 357 W/m 3,2 C 10,1 C 8,0 km/h (2 Bft)
16.03.2016 15:42 10,0 C 60 % 1032,7 hPa 0,0 l/m 7,0 km/h (2 Bft) O 88 3 min 352 W/m 2,6 C 9,6 C 14,5 km/h (3 Bft)
16.03.2016 15:45 10,2 C 62 % 1032,6 hPa 0,0 l/m 4,2 km/h (1 Bft) O-NO 67 3 min 348 W/m 3,3 C 10,2 C 6,4 km/h (2 Bft)
16.03.2016 15:48 10,1 C 61 % 1032,7 hPa 0,0 l/m 4,8 km/h (1 Bft) O 83 3 min 341 W/m 2,9 C 10,1 C 11,3 km/h (2 Bft)
16.03.2016 15:51 10,1 C 62 % 1032,6 hPa 0,0 l/m 4,6 km/h (1 Bft) NO 52 3 min 332 W/m 3,2 C 10,1 C 14,5 km/h (3 Bft)
16.03.2016 15:54 10,0 C 62 % 1032,6 hPa 0,0 l/m 6,3 km/h (2 Bft) N-NO 26 3 min 327 W/m 3,1 C 10,0 C 14,5 km/h (3 Bft)
16.03.2016 15:57 9,8 C 62 % 1032,5 hPa 0,0 l/m 7,8 km/h (2 Bft) NO 54 3 min 318 W/m 2,9 C 8,8 C 16,1 km/h (3 Bft)
16.03.2016 16:00 9,7 C 63 % 1032,5 hPa 0,0 l/m 5,4 km/h (2 Bft) N 360 3 min 315 W/m 3,0 C 9,7 C 11,3 km/h (2 Bft)
16.03.2016 16:03 9,6 C 63 % 1032,4 hPa 0,0 l/m 5,8 km/h (2 Bft) N-NW 334 3 min 308 W/m 2,9 C 9,6 C 12,9 km/h (3 Bft)
16.03.2016 16:06 9,6 C 63 % 1032,5 hPa 0,0 l/m 4,5 km/h (1 Bft) O 91 3 min 301 W/m 2,9 C 9,6 C 8,0 km/h (2 Bft)
16.03.2016 16:09 9,7 C 62 % 1032,4 hPa 0,0 l/m 6,8 km/h (2 Bft) O-NO 77 3 min 295 W/m 2,8 C 9,4 C 12,9 km/h (3 Bft)
16.03.2016 16:12 9,7 C 62 % 1032,4 hPa 0,0 l/m 4,6 km/h (1 Bft) N-NO 32 3 min 290 W/m 2,8 C 9,7 C 9,7 km/h (2 Bft)
16.03.2016 16:15 9,6 C 63 % 1032,4 hPa 0,0 l/m 3,6 km/h (1 Bft) N-NO 23 3 min 281 W/m 2,9 C 9,6 C 6,4 km/h (2 Bft)
16.03.2016 16:18 9,7 C 64 % 1032,3 hPa 0,0 l/m 2,9 km/h (1 Bft) NW 320 3 min 276 W/m 3,2 C 9,7 C 6,4 km/h (2 Bft)
16.03.2016 16:21 9,7 C 65 % 1032,3 hPa 0,0 l/m 3,9 km/h (1 Bft) N-NO 31 3 min 267 W/m 3,4 C 9,7 C 9,7 km/h (2 Bft)
16.03.2016 16:24 9,7 C 65 % 1032,3 hPa 0,0 l/m 5,5 km/h (2 Bft) N-NO 32 3 min 262 W/m 3,4 C 9,7 C 9,7 km/h (2 Bft)
16.03.2016 16:27 9,7 C 65 % 1032,3 hPa 0,0 l/m 3,7 km/h (1 Bft) O-NO 74 3 min 255 W/m 3,4 C 9,7 C 8,0 km/h (2 Bft)
16.03.2016 16:30 9,7 C 65 % 1032,2 hPa 0,0 l/m 4,4 km/h (1 Bft) O-NO 59 3 min 246 W/m 3,4 C 9,7 C 8,0 km/h (2 Bft)
16.03.2016 16:33 9,6 C 65 % 1032,2 hPa 0,0 l/m 4,6 km/h (1 Bft) NW 316 3 min 241 W/m 3,4 C 9,6 C 8,0 km/h (2 Bft)
16.03.2016 16:36 9,6 C 65 % 1032,2 hPa 0,0 l/m 4,7 km/h (1 Bft) O 80 3 min 234 W/m 3,4 C 9,6 C 9,7 km/h (2 Bft)
16.03.2016 16:39 9,6 C 67 % 1032,2 hPa 0,0 l/m 3,4 km/h (1 Bft) O 86 3 min 225 W/m 3,8 C 9,6 C 6,4 km/h (2 Bft)
16.03.2016 16:42 9,7 C 66 % 1032,2 hPa 0,0 l/m 4,1 km/h (1 Bft) NO 41 3 min 220 W/m 3,7 C 9,7 C 8,0 km/h (2 Bft)
16.03.2016 16:45 9,4 C 66 % 1032,1 hPa 0,0 l/m 4,5 km/h (1 Bft) N-NO 19 3 min 209 W/m 3,4 C 9,4 C 8,0 km/h (2 Bft)
16.03.2016 16:48 9,3 C 67 % 1032,2 hPa 0,0 l/m 4,8 km/h (1 Bft) O-NO 65 3 min 202 W/m 3,5 C 9,3 C 8,0 km/h (2 Bft)
16.03.2016 16:51 9,3 C 66 % 1032,1 hPa 0,0 l/m 4,9 km/h (1 Bft) N 360 3 min 193 W/m 3,3 C 9,3 C 8,0 km/h (2 Bft)
16.03.2016 16:54 9,2 C 67 % 1032,1 hPa 0,0 l/m 4,1 km/h (1 Bft) O-NO 74 3 min 186 W/m 3,4 C 9,2 C 8,0 km/h (2 Bft)
16.03.2016 16:57 9,1 C 67 % 1032,0 hPa 0,0 l/m 4,6 km/h (1 Bft) N 360 3 min 176 W/m 3,3 C 9,1 C 9,7 km/h (2 Bft)
16.03.2016 17:00 9,1 C 68 % 1032,1 hPa 0,0 l/m 4,3 km/h (1 Bft) NO 51 3 min 169 W/m 3,5 C 9,1 C 8,0 km/h (2 Bft)
16.03.2016 17:03 9,2 C 66 % 1032,1 hPa 0,0 l/m 4,9 km/h (1 Bft) N-NO 31 3 min 162 W/m 3,2 C 9,2 C 9,7 km/h (2 Bft)
16.03.2016 17:06 9,1 C 67 % 1032,1 hPa 0,0 l/m 4,2 km/h (1 Bft) NW 311 3 min 156 W/m 3,3 C 9,1 C 9,7 km/h (2 Bft)
16.03.2016 17:09 9,0 C 67 % 1032,1 hPa 0,0 l/m 5,3 km/h (1 Bft) O-SO 105 3 min 148 W/m 3,2 C 9,0 C 12,9 km/h (3 Bft)
16.03.2016 17:12 8,9 C 68 % 1032,1 hPa 0,0 l/m 4,7 km/h (1 Bft) NO 48 3 min 141 W/m 3,3 C 8,9 C 9,7 km/h (2 Bft)
16.03.2016 17:15 8,9 C 67 % 1032,1 hPa 0,0 l/m 4,8 km/h (1 Bft) O 83 3 min 132 W/m 3,1 C 8,9 C 14,5 km/h (3 Bft)
16.03.2016 17:18 8,9 C 67 % 1032,1 hPa 0,0 l/m 4,7 km/h (1 Bft) NO 46 3 min 123 W/m 3,1 C 8,9 C 8,0 km/h (2 Bft)
16.03.2016 17:21 8,8 C 66 % 1032,1 hPa 0,0 l/m 5,3 km/h (1 Bft) N-NO 17 3 min 114 W/m 2,8 C 8,8 C 9,7 km/h (2 Bft)
16.03.2016 17:24 8,7 C 68 % 1032,1 hPa 0,0 l/m 3,6 km/h (1 Bft) NO 54 3 min 107 W/m 3,1 C 8,7 C 6,4 km/h (2 Bft)
16.03.2016 17:27 8,7 C 67 % 1032,1 hPa 0,0 l/m 3,6 km/h (1 Bft) N-NO 27 3 min 98 W/m 2,9 C 8,7 C 8,0 km/h (2 Bft)
16.03.2016 17:30 8,6 C 68 % 1032,2 hPa 0,0 l/m 4,3 km/h (1 Bft) O-NO 57 3 min 93 W/m 3,0 C 8,6 C 8,0 km/h (2 Bft)
16.03.2016 17:33 8,6 C 67 % 1032,1 hPa 0,0 l/m 5,7 km/h (2 Bft) N-NO 30 3 min 86 W/m 2,8 C 8,6 C 11,3 km/h (2 Bft)
16.03.2016 17:36 8,5 C 68 % 1032,1 hPa 0,0 l/m 3,8 km/h (1 Bft) NO 38 3 min 79 W/m 2,9 C 8,5 C 8,0 km/h (2 Bft)
16.03.2016 17:39 8,4 C 68 % 1032,1 hPa 0,0 l/m 4,6 km/h (1 Bft) N-NW 328 3 min 72 W/m 2,8 C 8,4 C 12,9 km/h (3 Bft)
16.03.2016 17:42 8,3 C 69 % 1032,1 hPa 0,0 l/m 4,2 km/h (1 Bft) NO 46 3 min 67 W/m 3,0 C 8,3 C 8,0 km/h (2 Bft)
16.03.2016 17:45 8,2 C 70 % 1032,2 hPa 0,0 l/m 3,5 km/h (1 Bft) N-NO 18 3 min 60 W/m 3,1 C 8,2 C 6,4 km/h (2 Bft)
16.03.2016 17:48 8,1 C 71 % 1032,1 hPa 0,0 l/m 4,9 km/h (1 Bft) NW 309 0 min 51 W/m 3,2 C 8,1 C 12,9 km/h (3 Bft)
16.03.2016 17:51 7,8 C 71 % 1032,1 hPa 0,0 l/m 4,5 km/h (1 Bft) NO 46 0 min 19 W/m 2,9 C 7,8 C 9,7 km/h (2 Bft)
16.03.2016 17:54 7,8 C 71 % 1032,1 hPa 0,0 l/m 5,8 km/h (2 Bft) N-NO 22 0 min 18 W/m 2,9 C 7,8 C 17,7 km/h (3 Bft)
16.03.2016 17:57 7,6 C 71 % 1032,1 hPa 0,0 l/m 3,8 km/h (1 Bft) N-NO 20 0 min 18 W/m 2,7 C 7,6 C 8,0 km/h (2 Bft)
16.03.2016 18:00 7,5 C 71 % 1032,1 hPa 0,0 l/m 3,1 km/h (1 Bft) N-NO 19 0 min 16 W/m 2,6 C 7,5 C 6,4 km/h (2 Bft)
16.03.2016 18:03 7,4 C 72 % 1032,1 hPa 0,0 l/m 3,0 km/h (1 Bft) N 9 0 min 14 W/m 2,7 C 7,4 C 8,0 km/h (2 Bft)
16.03.2016 18:06 7,3 C 72 % 1032,2 hPa 0,0 l/m 4,5 km/h (1 Bft) NO 44 0 min 14 W/m 2,6 C 7,3 C 11,3 km/h (2 Bft)
16.03.2016 18:09 7,2 C 72 % 1032,2 hPa 0,0 l/m 3,0 km/h (1 Bft) NO 34 0 min 12 W/m 2,5 C 7,2 C 8,0 km/h (2 Bft)
16.03.2016 18:12 7,2 C 72 % 1032,2 hPa 0,0 l/m 3,4 km/h (1 Bft) NO 45 0 min 11 W/m 2,5 C 7,2 C 6,4 km/h (2 Bft)
16.03.2016 18:15 7,1 C 73 % 1032,2 hPa 0,0 l/m 3,0 km/h (1 Bft) N-NO 33 0 min 11 W/m 2,6 C 7,1 C 8,0 km/h (2 Bft)
16.03.2016 18:18 7,0 C 73 % 1032,3 hPa 0,0 l/m 2,5 km/h (1 Bft) N-NO 13 0 min 9 W/m 2,5 C 7,0 C 4,8 km/h (1 Bft)
16.03.2016 18:21 6,8 C 74 % 1032,3 hPa 0,0 l/m 3,0 km/h (1 Bft) N-NO 33 0 min 7 W/m 2,5 C 6,8 C 8,0 km/h (2 Bft)
16.03.2016 18:24 6,7 C 74 % 1032,3 hPa 0,0 l/m 4,0 km/h (1 Bft) O-NO 59 0 min 7 W/m 2,4 C 6,7 C 8,0 km/h (2 Bft)
16.03.2016 18:27 6,6 C 75 % 1032,4 hPa 0,0 l/m 2,9 km/h (1 Bft) NO 36 0 min 5 W/m 2,5 C 6,6 C 6,4 km/h (2 Bft)
16.03.2016 18:30 6,6 C 75 % 1032,4 hPa 0,0 l/m 4,6 km/h (1 Bft) O-NO 76 0 min 0 W/m 2,5 C 6,6 C 11,3 km/h (2 Bft)
16.03.2016 18:33 6,4 C 75 % 1032,4 hPa 0,0 l/m 4,9 km/h (1 Bft) N-NW 338 0 min 0 W/m 2,3 C 6,4 C 8,0 km/h (2 Bft)
16.03.2016 18:36 6,4 C 75 % 1032,3 hPa 0,0 l/m 3,9 km/h (1 Bft) NO 44 0 min 0 W/m 2,3 C 6,4 C 8,0 km/h (2 Bft)
16.03.2016 18:39 6,3 C 76 % 1032,3 hPa 0,0 l/m 2,9 km/h (1 Bft) N-NO 29 0 min 0 W/m 2,4 C 6,3 C 6,4 km/h (2 Bft)
16.03.2016 18:42 6,2 C 76 % 1032,3 hPa 0,0 l/m 2,4 km/h (1 Bft) N 360 0 min 0 W/m 2,3 C 6,2 C 6,4 km/h (2 Bft)
16.03.2016 18:45 6,0 C 77 % 1032,3 hPa 0,0 l/m 3,2 km/h (1 Bft) NO 51 0 min 0 W/m 2,3 C 6,0 C 11,3 km/h (2 Bft)
16.03.2016 18:48 6,0 C 77 % 1032,3 hPa 0,0 l/m 3,1 km/h (1 Bft) O-NO 67 0 min 0 W/m 2,3 C 6,0 C 6,4 km/h (2 Bft)
16.03.2016 18:51 5,9 C 78 % 1032,3 hPa 0,0 l/m 4,5 km/h (1 Bft) O 82 0 min 0 W/m 2,4 C 5,9 C 8,0 km/h (2 Bft)
16.03.2016 18:54 5,8 C 78 % 1032,3 hPa 0,0 l/m 3,6 km/h (1 Bft) NO 38 0 min 0 W/m 2,3 C 5,8 C 8,0 km/h (2 Bft)
16.03.2016 18:57 5,8 C 77 % 1032,4 hPa 0,0 l/m 3,3 km/h (1 Bft) O-NO 75 0 min 0 W/m 2,1 C 5,8 C 8,0 km/h (2 Bft)
16.03.2016 19:00 5,7 C 78 % 1032,4 hPa 0,0 l/m 1,6 km/h (1 Bft) O 88 0 min 0 W/m 2,2 C 5,7 C 3,2 km/h (1 Bft)
16.03.2016 19:03 5,7 C 78 % 1032,4 hPa 0,0 l/m 1,8 km/h (1 Bft) NW 321 0 min 0 W/m 2,2 C 5,7 C 3,2 km/h (1 Bft)
16.03.2016 19:06 5,7 C 78 % 1032,4 hPa 0,0 l/m 4,0 km/h (1 Bft) NO 50 0 min 0 W/m 2,2 C 5,7 C 11,3 km/h (2 Bft)
16.03.2016 19:09 5,6 C 78 % 1032,5 hPa 0,0 l/m 3,1 km/h (1 Bft) NO 38 0 min 0 W/m 2,1 C 5,6 C 8,0 km/h (2 Bft)
16.03.2016 19:12 5,6 C 78 % 1032,4 hPa 0,0 l/m 2,6 km/h (1 Bft) N-NO 17 0 min 0 W/m 2,1 C 5,6 C 8,0 km/h (2 Bft)
16.03.2016 19:15 5,6 C 78 % 1032,4 hPa 0,0 l/m 1,2 km/h (1 Bft) N-NO 17 0 min 0 W/m 2,1 C 5,6 C 1,6 km/h (1 Bft)
16.03.2016 19:18 5,4 C 78 % 1032,5 hPa 0,0 l/m 1,7 km/h (1 Bft) N-NW 342 0 min 0 W/m 1,9 C 5,4 C 4,8 km/h (1 Bft)
16.03.2016 19:21 5,3 C 79 % 1032,5 hPa 0,0 l/m 2,0 km/h (1 Bft) NO 40 0 min 0 W/m 2,0 C 5,3 C 4,8 km/h (1 Bft)
16.03.2016 19:24 5,3 C 79 % 1032,4 hPa 0,0 l/m 1,9 km/h (1 Bft) N-NO 26 0 min 0 W/m 2,0 C 5,3 C 6,4 km/h (2 Bft)
16.03.2016 19:27 5,2 C 80 % 1032,5 hPa 0,0 l/m 2,9 km/h (1 Bft) N-NO 19 0 min 0 W/m 2,0 C 5,2 C 6,4 km/h (2 Bft)
16.03.2016 19:30 5,1 C 80 % 1032,5 hPa 0,0 l/m 1,9 km/h (1 Bft) O 85 0 min 0 W/m 1,9 C 5,1 C 6,4 km/h (2 Bft)
16.03.2016 19:33 5,0 C 80 % 1032,5 hPa 0,0 l/m 1,5 km/h (1 Bft) O 83 0 min 0 W/m 1,8 C 5,0 C 3,2 km/h (1 Bft)
16.03.2016 19:36 4,9 C 80 % 1032,5 hPa 0,0 l/m 2,6 km/h (1 Bft) O-NO 57 0 min 0 W/m 1,7 C 4,9 C 6,4 km/h (2 Bft)
16.03.2016 19:39 4,8 C 83 % 1032,5 hPa 0,0 l/m 2,5 km/h (1 Bft) NO 51 0 min 0 W/m 2,2 C 4,8 C 4,8 km/h (1 Bft)
16.03.2016 19:42 4,8 C 84 % 1032,4 hPa 0,0 l/m 3,4 km/h (1 Bft) NO 51 0 min 0 W/m 2,3 C 4,8 C 4,8 km/h (1 Bft)
16.03.2016 19:45 4,8 C 86 % 1032,5 hPa 0,0 l/m 2,2 km/h (1 Bft) NO 51 0 min 0 W/m 2,7 C 4,8 C 3,2 km/h (1 Bft)
16.03.2016 19:48 4,8 C 87 % 1032,5 hPa 0,0 l/m 2,2 km/h (1 Bft) NO 51 0 min 0 W/m 2,8 C 4,8 C 4,8 km/h (1 Bft)
16.03.2016 19:51 4,8 C 87 % 1032,5 hPa 0,0 l/m 2,4 km/h (1 Bft) O 79 0 min 0 W/m 2,8 C 4,8 C 4,8 km/h (1 Bft)
16.03.2016 19:54 4,8 C 87 % 1032,5 hPa 0,0 l/m 2,5 km/h (1 Bft) N-NO 19 0 min 0 W/m 2,8 C 4,8 C 4,8 km/h (1 Bft)
16.03.2016 19:57 4,8 C 87 % 1032,6 hPa 0,0 l/m 2,9 km/h (1 Bft) N-NO 31 0 min 0 W/m 2,8 C 4,8 C 6,4 km/h (2 Bft)
16.03.2016 20:00 4,7 C 87 % 1032,5 hPa 0,0 l/m 3,4 km/h (1 Bft) N-NO 30 0 min 0 W/m 2,7 C 4,7 C 6,4 km/h (2 Bft)
16.03.2016 20:03 4,7 C 87 % 1032,5 hPa 0,0 l/m 2,8 km/h (1 Bft) N-NW 343 0 min 0 W/m 2,7 C 4,7 C 4,8 km/h (1 Bft)
16.03.2016 20:06 4,8 C 87 % 1032,5 hPa 0,0 l/m 2,8 km/h (1 Bft) N 350 0 min 0 W/m 2,8 C 4,8 C 6,4 km/h (2 Bft)
16.03.2016 20:09 4,7 C 87 % 1032,5 hPa 0,0 l/m 3,6 km/h (1 Bft) O-SO 111 0 min 0 W/m 2,7 C 4,7 C 8,0 km/h (2 Bft)
16.03.2016 20:12 4,7 C 87 % 1032,5 hPa 0,0 l/m 3,1 km/h (1 Bft) N-NW 336 0 min 0 W/m 2,7 C 4,7 C 6,4 km/h (2 Bft)
16.03.2016 20:15 4,6 C 87 % 1032,6 hPa 0,0 l/m 2,2 km/h (1 Bft) O-NO 63 0 min 0 W/m 2,6 C 4,6 C 4,8 km/h (1 Bft)
16.03.2016 20:18 4,6 C 87 % 1032,5 hPa 0,0 l/m 1,5 km/h (1 Bft) O-NO 65 0 min 0 W/m 2,6 C 4,6 C 3,2 km/h (1 Bft)
16.03.2016 20:21 4,4 C 87 % 1032,6 hPa 0,0 l/m 1,7 km/h (1 Bft) O-NO 65 0 min 0 W/m 2,4 C 4,4 C 3,2 km/h (1 Bft)
16.03.2016 20:24 4,4 C 87 % 1032,6 hPa 0,0 l/m 1,7 km/h (1 Bft) O-NO 65 0 min 0 W/m 2,4 C 4,4 C 3,2 km/h (1 Bft)
16.03.2016 20:27 4,3 C 87 % 1032,5 hPa 0,0 l/m 2,3 km/h (1 Bft) N-NO 29 0 min 0 W/m 2,3 C 4,3 C 4,8 km/h (1 Bft)
16.03.2016 20:30 4,2 C 87 % 1032,5 hPa 0,0 l/m 2,4 km/h (1 Bft) NO 42 0 min 0 W/m 2,2 C 4,2 C 4,8 km/h (1 Bft)
16.03.2016 20:33 4,1 C 87 % 1032,5 hPa 0,0 l/m 1,6 km/h (1 Bft) NO 55 0 min 0 W/m 2,1 C 4,1 C 4,8 km/h (1 Bft)
16.03.2016 20:36 4,1 C 87 % 1032,5 hPa 0,0 l/m 1,1 km/h (1 Bft) NO 55 0 min 0 W/m 2,1 C 4,1 C 3,2 km/h (1 Bft)
16.03.2016 20:39 4,0 C 88 % 1032,4 hPa 0,0 l/m 1,5 km/h (1 Bft) NO 55 0 min 0 W/m 2,2 C 4,0 C 3,2 km/h (1 Bft)
16.03.2016 20:42 4,0 C 88 % 1032,5 hPa 0,0 l/m 0,3 km/h (0 Bft) NO 55 0 min 0 W/m 2,2 C 4,0 C 1,6 km/h (1 Bft)
16.03.2016 20:45 3,9 C 88 % 1032,5 hPa 0,0 l/m 0,2 km/h (0 Bft) NO 55 0 min 0 W/m 2,1 C 3,9 C 1,6 km/h (1 Bft)
16.03.2016 20:48 3,9 C 88 % 1032,6 hPa 0,0 l/m 0,7 km/h (0 Bft) NO 55 0 min 0 W/m 2,1 C 3,9 C 1,6 km/h (1 Bft)
16.03.2016 20:51 3,9 C 87 % 1032,6 hPa 0,0 l/m 0,2 km/h (0 Bft) NO 55 0 min 0 W/m 1,9 C 3,9 C 1,6 km/h (1 Bft)
16.03.2016 20:54 3,8 C 87 % 1032,6 hPa 0,0 l/m 0,2 km/h (0 Bft) NO 55 0 min 0 W/m 1,8 C 3,8 C 1,6 km/h (1 Bft)
16.03.2016 20:57 3,8 C 88 % 1032,6 hPa 0,0 l/m 0,3 km/h (0 Bft) NO 55 0 min 0 W/m 2,0 C 3,8 C 1,6 km/h (1 Bft)
16.03.2016 21:00 3,7 C 87 % 1032,6 hPa 0,0 l/m 0,1 km/h (0 Bft) NO 55 0 min 0 W/m 1,7 C 3,7 C 1,6 km/h (1 Bft)
16.03.2016 21:03 3,6 C 88 % 1032,6 hPa 0,0 l/m 0,6 km/h (0 Bft) NO 55 0 min 0 W/m 1,8 C 3,6 C 3,2 km/h (1 Bft)
16.03.2016 21:06 3,6 C 88 % 1032,6 hPa 0,0 l/m 0,4 km/h (0 Bft) O 83 0 min 0 W/m 1,8 C 3,6 C 3,2 km/h (1 Bft)
16.03.2016 21:09 3,5 C 89 % 1032,6 hPa 0,0 l/m 0,5 km/h (0 Bft) O 83 0 min 0 W/m 1,9 C 3,5 C 1,6 km/h (1 Bft)
16.03.2016 21:12 3,5 C 89 % 1032,7 hPa 0,0 l/m 0,6 km/h (0 Bft) NO 49 0 min 0 W/m 1,9 C 3,5 C 3,2 km/h (1 Bft)
16.03.2016 21:15 3,5 C 89 % 1032,7 hPa 0,0 l/m 0,3 km/h (0 Bft) NO 49 0 min 0 W/m 1,9 C 3,5 C 1,6 km/h (1 Bft)
16.03.2016 21:18 3,5 C 89 % 1032,7 hPa 0,0 l/m 0,0 km/h (0 Bft) NO 49 0 min 0 W/m 1,9 C 3,5 C 1,6 km/h (1 Bft)
16.03.2016 21:21 3,5 C 89 % 1032,8 hPa 0,0 l/m 0,4 km/h (0 Bft) N-NO 26 0 min 0 W/m 1,9 C 3,5 C 1,6 km/h (1 Bft)
16.03.2016 21:24 3,6 C 89 % 1032,7 hPa 0,0 l/m 2,1 km/h (1 Bft) NO 38 0 min 0 W/m 2,0 C 3,6 C 4,8 km/h (1 Bft)
16.03.2016 21:27 3,6 C 89 % 1032,7 hPa 0,0 l/m 0,4 km/h (0 Bft) NO 38 0 min 0 W/m 2,0 C 3,6 C 3,2 km/h (1 Bft)
16.03.2016 21:30 3,5 C 89 % 1032,7 hPa 0,0 l/m 0,7 km/h (0 Bft) NO 38 0 min 0 W/m 1,9 C 3,5 C 3,2 km/h (1 Bft)
16.03.2016 21:33 3,4 C 89 % 1032,7 hPa 0,0 l/m 1,2 km/h (1 Bft) N-NO 23 0 min 0 W/m 1,8 C 3,4 C 3,2 km/h (1 Bft)
16.03.2016 21:36 3,4 C 89 % 1032,8 hPa 0,0 l/m 0,1 km/h (0 Bft) N-NO 23 0 min 0 W/m 1,8 C 3,4 C 1,6 km/h (1 Bft)
16.03.2016 21:39 3,4 C 89 % 1032,8 hPa 0,0 l/m 0,2 km/h (0 Bft) N-NO 21 0 min 0 W/m 1,8 C 3,4 C 1,6 km/h (1 Bft)
16.03.2016 21:42 3,4 C 89 % 1032,7 hPa 0,0 l/m 1,5 km/h (1 Bft) NO 44 0 min 0 W/m 1,8 C 3,4 C 4,8 km/h (1 Bft)
16.03.2016 21:45 3,5 C 89 % 1032,7 hPa 0,0 l/m 2,0 km/h (1 Bft) N-NO 33 0 min 0 W/m 1,9 C 3,5 C 4,8 km/h (1 Bft)
16.03.2016 21:48 3,5 C 88 % 1032,7 hPa 0,0 l/m 0,9 km/h (0 Bft) O-NO 58 0 min 0 W/m 1,7 C 3,5 C 1,6 km/h (1 Bft)
16.03.2016 21:51 3,4 C 88 % 1032,8 hPa 0,0 l/m 0,3 km/h (0 Bft) O-NO 58 0 min 0 W/m 1,6 C 3,4 C 1,6 km/h (1 Bft)
16.03.2016 21:54 3,3 C 88 % 1032,8 hPa 0,0 l/m 0,5 km/h (0 Bft) O-NO 58 0 min 0 W/m 1,5 C 3,3 C 1,6 km/h (1 Bft)
16.03.2016 21:57 3,3 C 89 % 1032,8 hPa 0,0 l/m 0,9 km/h (0 Bft) O-NO 62 0 min 0 W/m 1,7 C 3,3 C 3,2 km/h (1 Bft)
16.03.2016 22:00 3,2 C 89 % 1032,8 hPa 0,0 l/m 1,6 km/h (1 Bft) NO 42 0 min 0 W/m 1,6 C 3,2 C 6,4 km/h (2 Bft)
16.03.2016 22:03 3,1 C 89 % 1032,8 hPa 0,0 l/m 1,0 km/h (0 Bft) NO 42 0 min 0 W/m 1,5 C 3,1 C 3,2 km/h (1 Bft)
16.03.2016 22:06 3,1 C 89 % 1032,8 hPa 0,0 l/m 0,0 km/h (0 Bft) NO 42 0 min 0 W/m 1,5 C 3,1 C 1,6 km/h (1 Bft)
16.03.2016 22:09 2,9 C 89 % 1032,8 hPa 0,0 l/m 0,1 km/h (0 Bft) NO 42 0 min 0 W/m 1,3 C 2,9 C 1,6 km/h (1 Bft)
16.03.2016 22:12 2,9 C 89 % 1032,8 hPa 0,0 l/m 0,9 km/h (0 Bft) NO 53 0 min 0 W/m 1,3 C 2,9 C 6,4 km/h (2 Bft)
16.03.2016 22:15 2,9 C 90 % 1032,9 hPa 0,0 l/m 1,7 km/h (1 Bft) O-NO 65 0 min 0 W/m 1,4 C 2,9 C 3,2 km/h (1 Bft)
16.03.2016 22:18 3,1 C 90 % 1032,9 hPa 0,0 l/m 2,1 km/h (1 Bft) O 99 0 min 0 W/m 1,6 C 3,1 C 6,4 km/h (2 Bft)
16.03.2016 22:21 3,2 C 90 % 1032,9 hPa 0,0 l/m 1,6 km/h (1 Bft) O 98 0 min 0 W/m 1,7 C 3,2 C 6,4 km/h (2 Bft)
16.03.2016 22:24 3,1 C 90 % 1032,9 hPa 0,0 l/m 0,7 km/h (0 Bft) O 98 0 min 0 W/m 1,6 C 3,1 C 3,2 km/h (1 Bft)
16.03.2016 22:27 3,1 C 90 % 1032,9 hPa 0,0 l/m 0,9 km/h (0 Bft) O 98 0 min 0 W/m 1,6 C 3,1 C 3,2 km/h (1 Bft)
16.03.2016 22:30 3,1 C 90 % 1032,9 hPa 0,0 l/m 1,1 km/h (1 Bft) O 86 0 min 0 W/m 1,6 C 3,1 C 4,8 km/h (1 Bft)
16.03.2016 22:33 3,2 C 90 % 1032,9 hPa 0,0 l/m 0,8 km/h (0 Bft) O 86 0 min 0 W/m 1,7 C 3,2 C 3,2 km/h (1 Bft)
16.03.2016 22:36 3,2 C 90 % 1032,9 hPa 0,0 l/m 1,6 km/h (1 Bft) O-NO 60 0 min 0 W/m 1,7 C 3,2 C 4,8 km/h (1 Bft)
16.03.2016 22:39 3,3 C 90 % 1033,0 hPa 0,0 l/m 0,3 km/h (0 Bft) O 90 0 min 0 W/m 1,8 C 3,3 C 3,2 km/h (1 Bft)
16.03.2016 22:42 3,3 C 90 % 1032,9 hPa 0,0 l/m 1,5 km/h (1 Bft) O-NO 78 0 min 0 W/m 1,8 C 3,3 C 4,8 km/h (1 Bft)
16.03.2016 22:45 3,2 C 90 % 1032,9 hPa 0,0 l/m 1,8 km/h (1 Bft) O-NO 67 0 min 0 W/m 1,7 C 3,2 C 4,8 km/h (1 Bft)
16.03.2016 22:48 3,2 C 90 % 1033,0 hPa 0,0 l/m 0,9 km/h (0 Bft) O-NO 67 0 min 0 W/m 1,7 C 3,2 C 4,8 km/h (1 Bft)
16.03.2016 22:51 3,2 C 90 % 1033,0 hPa 0,0 l/m 1,7 km/h (1 Bft) NO 40 0 min 0 W/m 1,7 C 3,2 C 6,4 km/h (2 Bft)
16.03.2016 22:54 3,2 C 90 % 1033,0 hPa 0,0 l/m 0,5 km/h (0 Bft) NO 44 0 min 0 W/m 1,7 C 3,2 C 1,6 km/h (1 Bft)
16.03.2016 22:57 3,2 C 89 % 1033,0 hPa 0,0 l/m 0,2 km/h (0 Bft) NO 44 0 min 0 W/m 1,6 C 3,2 C 1,6 km/h (1 Bft)
16.03.2016 23:00 3,2 C 89 % 1033,0 hPa 0,0 l/m 1,3 km/h (1 Bft) NO 44 0 min 0 W/m 1,6 C 3,2 C 4,8 km/h (1 Bft)
16.03.2016 23:03 3,1 C 89 % 1033,0 hPa 0,0 l/m 1,7 km/h (1 Bft) NO 44 0 min 0 W/m 1,5 C 3,1 C 3,2 km/h (1 Bft)
16.03.2016 23:06 2,9 C 89 % 1033,1 hPa 0,0 l/m 2,0 km/h (1 Bft) NO 44 0 min 0 W/m 1,3 C 2,9 C 4,8 km/h (1 Bft)
16.03.2016 23:09 2,8 C 90 % 1033,1 hPa 0,0 l/m 1,6 km/h (1 Bft) NO 44 0 min 0 W/m 1,3 C 2,8 C 3,2 km/h (1 Bft)
16.03.2016 23:12 2,8 C 90 % 1033,0 hPa 0,0 l/m 2,1 km/h (1 Bft) NO 44 0 min 0 W/m 1,3 C 2,8 C 4,8 km/h (1 Bft)
16.03.2016 23:15 2,7 C 90 % 1032,9 hPa 0,0 l/m 2,1 km/h (1 Bft) O 79 0 min 0 W/m 1,2 C 2,7 C 4,8 km/h (1 Bft)
16.03.2016 23:18 2,6 C 90 % 1033,0 hPa 0,0 l/m 0,6 km/h (0 Bft) O 79 0 min 0 W/m 1,1 C 2,6 C 3,2 km/h (1 Bft)
16.03.2016 23:21 2,6 C 91 % 1033,0 hPa 0,0 l/m 0,7 km/h (0 Bft) O 79 0 min 0 W/m 1,3 C 2,6 C 3,2 km/h (1 Bft)
16.03.2016 23:24 2,4 C 90 % 1033,0 hPa 0,0 l/m 0,7 km/h (0 Bft) O 79 0 min 0 W/m 0,9 C 2,4 C 3,2 km/h (1 Bft)
16.03.2016 23:27 2,4 C 91 % 1033,1 hPa 0,0 l/m 0,8 km/h (0 Bft) O-NO 73 0 min 0 W/m 1,1 C 2,4 C 3,2 km/h (1 Bft)
16.03.2016 23:30 2,4 C 91 % 1033,2 hPa 0,0 l/m 0,8 km/h (0 Bft) O-NO 74 0 min 0 W/m 1,1 C 2,4 C 3,2 km/h (1 Bft)
16.03.2016 23:33 2,4 C 91 % 1033,0 hPa 0,0 l/m 1,3 km/h (1 Bft) O-NO 74 0 min 0 W/m 1,1 C 2,4 C 3,2 km/h (1 Bft)
16.03.2016 23:36 2,3 C 91 % 1033,1 hPa 0,0 l/m 1,7 km/h (1 Bft) O-SO 105 0 min 0 W/m 1,0 C 2,3 C 6,4 km/h (2 Bft)
16.03.2016 23:39 2,4 C 92 % 1033,0 hPa 0,0 l/m 1,0 km/h (0 Bft) O 101 0 min 0 W/m 1,2 C 2,4 C 4,8 km/h (1 Bft)
16.03.2016 23:42 2,4 C 92 % 1033,1 hPa 0,0 l/m 0,8 km/h (0 Bft) O 100 0 min 0 W/m 1,2 C 2,4 C 3,2 km/h (1 Bft)
16.03.2016 23:45 2,4 C 92 % 1033,0 hPa 0,0 l/m 0,8 km/h (0 Bft) O-NO 78 0 min 0 W/m 1,2 C 2,4 C 3,2 km/h (1 Bft)
16.03.2016 23:48 2,3 C 91 % 1033,0 hPa 0,0 l/m 1,2 km/h (1 Bft) O-NO 72 0 min 0 W/m 1,0 C 2,3 C 3,2 km/h (1 Bft)
16.03.2016 23:51 2,2 C 92 % 1032,9 hPa 0,0 l/m 1,0 km/h (0 Bft) O-NO 72 0 min 0 W/m 1,0 C 2,2 C 3,2 km/h (1 Bft)
16.03.2016 23:54 2,2 C 92 % 1032,9 hPa 0,0 l/m 1,0 km/h (0 Bft) O-NO 76 0 min 0 W/m 1,0 C 2,2 C 3,2 km/h (1 Bft)
16.03.2016 23:57 2,2 C 92 % 1032,9 hPa 0,0 l/m 1,7 km/h (1 Bft) O-NO 70 0 min 0 W/m 1,0 C 2,2 C 4,8 km/h (1 Bft)
_ Min-Zeit 06:42 15:06 00:06 - 21:18 - - - - 06:36 06:36 19:15
Minimum _ 0,8 C 58 % 1031,1 hPa - 0,0 km/h (0 Bft) - - - - 0,2 C 0,9 C 1,6 km/h (1 Bft)
_ Max-Zeit 14:00 06:57 09:57 00:00 12:54 - - 09:00 12:36 10:45 14:00 10:57
Maximum _ 10,3 C 96 % 1034,6 hPa 0,0 l/m 10,3 km/h
NO (2 Bft)
- - 3 min 536 W/m 3,9 C 10,3 C 20,9 km/h
O (4 Bft)
Durchschnitt _ 4,8 C 83 % 1033,0 hPa #0,0 l/m 4,1 km/h (1 Bft) NO - #8:45 h 279 W/m 1,9 C 4,7 C 9,1 km/h (2 Bft)
2016 Cux-Wetter.de -Die Nutzung der Wetterdaten nur mit ausdrcklicher Genehmigung